Wetterdaten: Donnerstag, 20.02.2020
Datum Zeit Temp. Aussen Temp. o. S. Temp +5cm Feuchte Auss Luftdruck Regen Sonnenschein Regendauer Solar Windben Empfang
20.02.2020 00:00 5,4 C 4,4 C 3,9 C 93 % 1020,5 hPa 0,0 l/m 0 min 0 min 0 W/m 6,4 km/h (2 Bft) 97,87 %
20.02.2020 00:02 5,4 C 4,4 C 3,9 C 93 % 1020,5 hPa 0,0 l/m 0 min 0 min 0 W/m 12,9 km/h (3 Bft) 97,44 %
20.02.2020 00:04 5,4 C 4,4 C 3,9 C 94 % 1020,5 hPa 0,0 l/m 0 min 0 min 0 W/m 12,9 km/h (3 Bft) 97,87 %
20.02.2020 00:08 5,4 C 4,4 C 3,9 C 94 % 1020,4 hPa 0,0 l/m 0 min 0 min 0 W/m 16,1 km/h (3 Bft) 96,81 %
20.02.2020 00:10 5,4 C 4,4 C 3,9 C 94 % 1020,3 hPa 0,0 l/m 0 min 0 min 0 W/m 12,9 km/h (3 Bft) 97,87 %
20.02.2020 00:12 5,4 C 4,4 C 3,9 C 94 % 1020,3 hPa 0,0 l/m 0 min 2 min 0 W/m 16,1 km/h (3 Bft) 97,87 %
20.02.2020 00:14 5,4 C 4,4 C 3,9 C 94 % 1020,2 hPa 0,0 l/m 0 min 2 min 0 W/m 16,1 km/h (3 Bft) 97,87 %
20.02.2020 00:16 5,4 C 4,4 C 3,9 C 94 % 1020,2 hPa 0,0 l/m 0 min 2 min 0 W/m 22,5 km/h (4 Bft) 97,83 %
20.02.2020 00:18 5,4 C 4,4 C 3,9 C 94 % 1020,2 hPa 0,0 l/m 0 min 2 min 0 W/m 19,3 km/h (3 Bft) 97,87 %
20.02.2020 00:20 5,4 C 4,4 C 3,9 C 94 % 1020,2 hPa 0,0 l/m 0 min 0 min 0 W/m 9,7 km/h (2 Bft) 97,87 %
20.02.2020 00:22 5,4 C 4,4 C 3,9 C 94 % 1020,1 hPa 0,0 l/m 0 min 0 min 0 W/m 19,3 km/h (3 Bft) 93,62 %
20.02.2020 00:24 5,4 C 4,4 C 3,9 C 94 % 1020,2 hPa 0,0 l/m 0 min 0 min 0 W/m 22,5 km/h (4 Bft) 95,74 %
20.02.2020 00:26 5,4 C 4,4 C 3,9 C 94 % 1020,1 hPa 0,0 l/m 0 min 0 min 0 W/m 16,1 km/h (3 Bft) 97,87 %
20.02.2020 00:28 5,4 C 4,4 C 3,9 C 94 % 1020,2 hPa 0,0 l/m 0 min 0 min 0 W/m 16,1 km/h (3 Bft) 95,65 %
20.02.2020 00:30 5,4 C 4,4 C 3,9 C 94 % 1020,1 hPa 0,0 l/m 0 min 0 min 0 W/m 16,1 km/h (3 Bft) 97,87 %
20.02.2020 00:32 5,4 C 4,4 C 3,9 C 94 % 1020,2 hPa 0,0 l/m 0 min 0 min 0 W/m 6,4 km/h (2 Bft) 97,87 %
20.02.2020 00:34 5,4 C 4,4 C 3,9 C 94 % 1020,2 hPa 0,0 l/m 0 min 0 min 0 W/m 19,3 km/h (3 Bft) 97,87 %
20.02.2020 00:36 5,4 C 4,4 C 3,9 C 94 % 1020,1 hPa 0,0 l/m 0 min 0 min 0 W/m 16,1 km/h (3 Bft) 100,00 %
20.02.2020 00:38 5,4 C 4,4 C 3,9 C 94 % 1020,1 hPa 0,0 l/m 0 min 2 min 0 W/m 12,9 km/h (3 Bft) 97,83 %
20.02.2020 00:40 5,4 C 4,4 C 3,9 C 94 % 1020,1 hPa 0,0 l/m 0 min 2 min 0 W/m 0,0 km/h (0 Bft) 97,87 %
20.02.2020 00:42 5,4 C 4,4 C 3,9 C 94 % 1020,0 hPa 0,0 l/m 0 min 0 min 0 W/m 0,0 km/h (0 Bft) 97,87 %
20.02.2020 00:44 5,4 C 4,4 C 3,9 C 94 % 1020,0 hPa 0,0 l/m 0 min 0 min 0 W/m 0,0 km/h (0 Bft) 100,00 %
20.02.2020 00:46 5,4 C 4,4 C 3,9 C 94 % 1020,0 hPa 0,0 l/m 0 min 0 min 0 W/m 0,0 km/h (0 Bft) 95,74 %
20.02.2020 00:48 5,4 C 4,4 C 3,9 C 94 % 1020,0 hPa 0,0 l/m 0 min 2 min 0 W/m 0,0 km/h (0 Bft) 97,87 %
20.02.2020 00:50 5,4 C 4,4 C 3,9 C 94 % 1020,0 hPa 0,0 l/m 0 min 0 min 0 W/m 0,0 km/h (0 Bft) 100,00 %
20.02.2020 00:52 5,4 C 4,4 C 3,9 C 94 % 1020,0 hPa 0,0 l/m 0 min 2 min 0 W/m 16,1 km/h (3 Bft) 97,87 %
20.02.2020 00:54 5,4 C 4,4 C 3,9 C 94 % 1020,0 hPa 0,0 l/m 0 min 2 min 0 W/m 12,9 km/h (3 Bft) 100,00 %
20.02.2020 00:56 5,4 C 4,4 C 3,9 C 94 % 1020,0 hPa 0,0 l/m 0 min 0 min 0 W/m 19,3 km/h (3 Bft) 97,87 %
20.02.2020 00:58 5,4 C 4,4 C 3,9 C 94 % 1019,9 hPa 0,0 l/m 0 min 0 min 0 W/m 16,1 km/h (3 Bft) 97,87 %
20.02.2020 01:00 5,4 C 4,4 C 3,9 C 94 % 1019,9 hPa 0,0 l/m 0 min 0 min 0 W/m 0,0 km/h (0 Bft) 97,87 %
20.02.2020 01:02 5,4 C 4,4 C 3,9 C 94 % 1019,9 hPa 0,0 l/m 0 min 2 min 0 W/m 0,0 km/h (0 Bft) 97,83 %
20.02.2020 01:04 5,4 C 4,4 C 3,9 C 94 % 1019,9 hPa 0,0 l/m 0 min 2 min 0 W/m 12,9 km/h (3 Bft) 95,74 %
20.02.2020 01:06 5,4 C 4,4 C 3,9 C 94 % 1019,8 hPa 0,0 l/m 0 min 2 min 0 W/m 12,9 km/h (3 Bft) 95,74 %
20.02.2020 01:08 5,4 C 4,4 C 3,9 C 94 % 1019,9 hPa 0,0 l/m 0 min 2 min 0 W/m 6,4 km/h (2 Bft) 97,87 %
20.02.2020 01:10 5,4 C 4,4 C 3,9 C 94 % 1019,9 hPa 0,0 l/m 0 min 2 min 0 W/m 6,4 km/h (2 Bft) 97,87 %
20.02.2020 01:12 5,4 C 4,4 C 3,9 C 94 % 1019,9 hPa 0,0 l/m 0 min 2 min 0 W/m 16,1 km/h (3 Bft) 95,74 %
20.02.2020 01:14 5,4 C 4,4 C 3,9 C 94 % 1019,8 hPa 0,0 l/m 0 min 2 min 0 W/m 6,4 km/h (2 Bft) 95,65 %
20.02.2020 01:16 5,4 C 4,4 C 3,9 C 94 % 1019,8 hPa 0,0 l/m 0 min 2 min 0 W/m 16,1 km/h (3 Bft) 93,62 %
20.02.2020 01:18 5,4 C 4,4 C 3,9 C 94 % 1019,8 hPa 0,0 l/m 0 min 2 min 0 W/m 12,9 km/h (3 Bft) 97,87 %
20.02.2020 01:20 5,4 C 4,4 C 3,9 C 94 % 1019,8 hPa 0,0 l/m 0 min 2 min 0 W/m 12,9 km/h (3 Bft) 97,87 %
20.02.2020 01:22 5,4 C 4,4 C 3,9 C 94 % 1019,7 hPa 0,0 l/m 0 min 2 min 0 W/m 16,1 km/h (3 Bft) 95,74 %
20.02.2020 01:24 5,4 C 4,4 C 3,9 C 94 % 1019,6 hPa 0,0 l/m 0 min 2 min 0 W/m 3,2 km/h (1 Bft) 97,87 %
20.02.2020 01:26 5,4 C 4,4 C 3,9 C 94 % 1019,7 hPa 0,0 l/m 0 min 2 min 0 W/m 6,4 km/h (2 Bft) 95,65 %
20.02.2020 01:28 5,5 C 4,4 C 3,9 C 94 % 1019,6 hPa 0,0 l/m 0 min 2 min 0 W/m 16,1 km/h (3 Bft) 95,74 %
20.02.2020 01:30 5,5 C 4,4 C 3,9 C 94 % 1019,6 hPa 0,0 l/m 0 min 2 min 0 W/m 6,4 km/h (2 Bft) 95,74 %
20.02.2020 01:32 5,5 C 4,4 C 3,9 C 94 % 1019,6 hPa 0,0 l/m 0 min 2 min 0 W/m 16,1 km/h (3 Bft) 95,74 %
20.02.2020 01:34 5,5 C 4,4 C 3,9 C 94 % 1019,5 hPa 0,0 l/m 0 min 2 min 0 W/m 12,9 km/h (3 Bft) 95,74 %
20.02.2020 01:36 5,5 C 4,4 C 3,9 C 94 % 1019,6 hPa 0,0 l/m 0 min 2 min 0 W/m 16,1 km/h (3 Bft) 95,65 %
20.02.2020 01:38 5,5 C 4,4 C 3,9 C 94 % 1019,5 hPa 0,0 l/m 0 min 2 min 0 W/m 12,9 km/h (3 Bft) 95,74 %
20.02.2020 01:40 5,5 C 4,4 C 3,9 C 94 % 1019,5 hPa 0,0 l/m 0 min 2 min 0 W/m 16,1 km/h (3 Bft) 95,74 %
20.02.2020 01:42 5,5 C 4,4 C 3,9 C 94 % 1019,5 hPa 0,0 l/m 0 min 2 min 0 W/m 0,0 km/h (0 Bft) 95,74 %
20.02.2020 01:44 5,5 C 4,4 C 3,9 C 94 % 1019,5 hPa 0,0 l/m 0 min 2 min 0 W/m 0,0 km/h (0 Bft) 93,62 %
20.02.2020 01:46 5,6 C 4,4 C 3,9 C 95 % 1019,4 hPa 0,0 l/m 0 min 0 min 0 W/m 0,0 km/h (0 Bft) 95,74 %
20.02.2020 01:48 5,6 C 4,4 C 3,9 C 95 % 1019,4 hPa 0,0 l/m 0 min 2 min 0 W/m 12,9 km/h (3 Bft) 95,65 %
20.02.2020 01:50 5,6 C 4,4 C 3,9 C 95 % 1019,3 hPa 0,0 l/m 0 min 2 min 0 W/m 12,9 km/h (3 Bft) 93,62 %
20.02.2020 01:52 5,6 C 4,4 C 3,9 C 95 % 1019,4 hPa 0,0 l/m 0 min 2 min 0 W/m 12,9 km/h (3 Bft) 93,62 %
20.02.2020 01:54 5,6 C 4,4 C 3,9 C 95 % 1019,4 hPa 0,2 l/m 0 min 2 min 0 W/m 6,4 km/h (2 Bft) 95,74 %
20.02.2020 01:56 5,6 C 4,4 C 3,9 C 95 % 1019,4 hPa 0,0 l/m 0 min 2 min 0 W/m 12,9 km/h (3 Bft) 95,74 %
20.02.2020 01:58 5,6 C 4,4 C 3,9 C 95 % 1019,3 hPa 0,0 l/m 0 min 2 min 0 W/m 0,0 km/h (0 Bft) 97,87 %
20.02.2020 02:00 5,6 C 5,0 C 3,9 C 95 % 1019,3 hPa 0,0 l/m 0 min 2 min 0 W/m 25,7 km/h (4 Bft) 97,83 %
20.02.2020 02:02 5,6 C 5,0 C 3,9 C 95 % 1019,3 hPa 0,0 l/m 0 min 2 min 0 W/m 16,1 km/h (3 Bft) 100,00 %
20.02.2020 02:04 5,6 C 5,0 C 3,9 C 95 % 1019,3 hPa 0,0 l/m 0 min 0 min 0 W/m 19,3 km/h (3 Bft) 100,00 %
20.02.2020 02:06 5,7 C 5,0 C 4,4 C 95 % 1019,3 hPa 0,0 l/m 0 min 0 min 0 W/m 12,9 km/h (3 Bft) 97,87 %
20.02.2020 02:08 5,7 C 5,0 C 4,4 C 95 % 1019,3 hPa 0,0 l/m 0 min 2 min 0 W/m 0,0 km/h (0 Bft) 100,00 %
20.02.2020 02:10 5,7 C 5,0 C 4,4 C 95 % 1019,3 hPa 0,0 l/m 0 min 2 min 0 W/m 19,3 km/h (3 Bft) 100,00 %
20.02.2020 02:12 5,7 C 5,0 C 4,4 C 95 % 1019,3 hPa 0,0 l/m 0 min 2 min 0 W/m 22,5 km/h (4 Bft) 100,00 %
20.02.2020 02:14 5,7 C 5,0 C 4,4 C 95 % 1019,2 hPa 0,0 l/m 0 min 2 min 0 W/m 19,3 km/h (3 Bft) 100,00 %
20.02.2020 02:16 5,8 C 5,0 C 4,4 C 95 % 1019,2 hPa 0,0 l/m 0 min 2 min 0 W/m 12,9 km/h (3 Bft) 97,87 %
20.02.2020 02:18 5,8 C 5,0 C 4,4 C 95 % 1019,2 hPa 0,0 l/m 0 min 2 min 0 W/m 12,9 km/h (3 Bft) 100,00 %
20.02.2020 02:20 5,8 C 5,0 C 4,4 C 95 % 1019,2 hPa 0,0 l/m 0 min 0 min 0 W/m 19,3 km/h (3 Bft) 100,00 %
20.02.2020 02:22 5,8 C 5,0 C 4,4 C 95 % 1019,2 hPa 0,0 l/m 0 min 0 min 0 W/m 12,9 km/h (3 Bft) 100,00 %
20.02.2020 02:24 5,8 C 5,6 C 4,4 C 95 % 1019,1 hPa 0,0 l/m 0 min 0 min 0 W/m 19,3 km/h (3 Bft) 100,00 %
20.02.2020 02:26 5,9 C 5,6 C 4,4 C 95 % 1019,0 hPa 0,0 l/m 0 min 0 min 0 W/m 29,0 km/h (5 Bft) 100,00 %
20.02.2020 02:28 5,9 C 5,6 C 4,4 C 95 % 1019,0 hPa 0,0 l/m 0 min 0 min 0 W/m 19,3 km/h (3 Bft) 100,00 %
20.02.2020 02:30 5,9 C 5,6 C 5,0 C 95 % 1019,0 hPa 0,0 l/m 0 min 0 min 0 W/m 16,1 km/h (3 Bft) 100,00 %
20.02.2020 02:32 5,9 C 5,6 C 5,0 C 95 % 1019,0 hPa 0,0 l/m 0 min 0 min 0 W/m 22,5 km/h (4 Bft) 97,87 %
20.02.2020 02:34 6,0 C 5,6 C 5,0 C 95 % 1019,0 hPa 0,0 l/m 0 min 0 min 0 W/m 12,9 km/h (3 Bft) 100,00 %
20.02.2020 02:36 6,0 C 5,6 C 5,0 C 95 % 1019,0 hPa 0,0 l/m 0 min 0 min 0 W/m 0,0 km/h (0 Bft) 97,87 %
20.02.2020 02:38 6,0 C 5,6 C 5,0 C 95 % 1019,0 hPa 0,0 l/m 0 min 0 min 0 W/m 22,5 km/h (4 Bft) 100,00 %
20.02.2020 02:40 6,1 C 5,6 C 5,0 C 95 % 1018,9 hPa 0,0 l/m 0 min 0 min 0 W/m 22,5 km/h (4 Bft) 97,87 %
20.02.2020 02:42 6,1 C 5,6 C 5,0 C 95 % 1018,9 hPa 0,0 l/m 0 min 0 min 0 W/m 12,9 km/h (3 Bft) 95,74 %
20.02.2020 02:44 6,1 C 5,6 C 5,0 C 95 % 1018,9 hPa 0,0 l/m 0 min 0 min 0 W/m 19,3 km/h (3 Bft) 97,87 %
20.02.2020 02:46 6,1 C 5,6 C 5,0 C 94 % 1018,9 hPa 0,0 l/m 0 min 0 min 0 W/m 19,3 km/h (3 Bft) 97,83 %
20.02.2020 02:48 6,1 C 5,6 C 5,0 C 94 % 1018,9 hPa 0,0 l/m 0 min 0 min 0 W/m 19,3 km/h (3 Bft) 97,87 %
20.02.2020 02:50 6,2 C 5,6 C 5,0 C 94 % 1018,9 hPa 0,0 l/m 0 min 0 min 0 W/m 16,1 km/h (3 Bft) 97,87 %
20.02.2020 02:52 6,2 C 5,6 C 5,0 C 94 % 1018,8 hPa 0,0 l/m 0 min 0 min 0 W/m 16,1 km/h (3 Bft) 97,87 %
20.02.2020 02:54 6,2 C 6,1 C 5,0 C 95 % 1018,8 hPa 0,0 l/m 0 min 0 min 0 W/m 19,3 km/h (3 Bft) 97,87 %
20.02.2020 02:56 6,3 C 6,1 C 5,0 C 94 % 1018,9 hPa 0,0 l/m 0 min 0 min 0 W/m 16,1 km/h (3 Bft) 95,74 %
20.02.2020 02:58 6,3 C 6,1 C 5,0 C 94 % 1018,8 hPa 0,0 l/m 0 min 2 min 0 W/m 29,0 km/h (5 Bft) 95,65 %
20.02.2020 03:00 6,3 C 5,6 C 5,0 C 94 % 1018,8 hPa 0,0 l/m 0 min 2 min 0 W/m 3,2 km/h (1 Bft) 95,74 %
20.02.2020 03:02 6,3 C 5,6 C 5,0 C 94 % 1018,8 hPa 0,0 l/m 0 min 2 min 0 W/m 19,3 km/h (3 Bft) 95,74 %
20.02.2020 03:04 6,3 C 5,6 C 5,0 C 94 % 1018,7 hPa 0,0 l/m 0 min 2 min 0 W/m 6,4 km/h (2 Bft) 97,87 %
20.02.2020 03:06 6,3 C 5,6 C 5,0 C 94 % 1018,8 hPa 0,0 l/m 0 min 2 min 0 W/m 16,1 km/h (3 Bft) 97,87 %
20.02.2020 03:08 6,4 C 5,6 C 5,0 C 94 % 1018,8 hPa 0,0 l/m 0 min 2 min 0 W/m 3,2 km/h (1 Bft) 97,87 %
20.02.2020 03:10 6,4 C 5,6 C 5,0 C 94 % 1018,7 hPa 0,0 l/m 0 min 2 min 0 W/m 12,9 km/h (3 Bft) 95,65 %
20.02.2020 03:12 6,4 C 5,6 C 4,4 C 94 % 1018,7 hPa 0,0 l/m 0 min 2 min 0 W/m 6,4 km/h (2 Bft) 95,74 %
20.02.2020 03:14 6,4 C 5,6 C 4,4 C 94 % 1018,6 hPa 0,0 l/m 0 min 2 min 0 W/m 19,3 km/h (3 Bft) 97,87 %
20.02.2020 03:16 6,4 C 5,6 C 4,4 C 94 % 1018,6 hPa 0,0 l/m 0 min 2 min 0 W/m 6,4 km/h (2 Bft) 95,74 %
20.02.2020 03:18 6,4 C 5,6 C 4,4 C 94 % 1018,5 hPa 0,0 l/m 0 min 2 min 0 W/m 0,0 km/h (0 Bft) 97,87 %
20.02.2020 03:20 6,4 C 5,6 C 4,4 C 94 % 1018,6 hPa 0,0 l/m 0 min 2 min 0 W/m 22,5 km/h (4 Bft) 97,87 %
20.02.2020 03:22 6,4 C 5,6 C 4,4 C 94 % 1018,5 hPa 0,0 l/m 0 min 2 min 0 W/m 25,7 km/h (4 Bft) 100,00 %
20.02.2020 03:24 6,4 C 5,6 C 4,4 C 94 % 1018,5 hPa 0,0 l/m 0 min 2 min 0 W/m 12,9 km/h (3 Bft) 100,00 %
20.02.2020 03:26 6,4 C 5,6 C 4,4 C 94 % 1018,4 hPa 0,0 l/m 0 min 2 min 0 W/m 3,2 km/h (1 Bft) 97,87 %
20.02.2020 03:28 6,5 C 5,0 C 4,4 C 94 % 1018,5 hPa 0,0 l/m 0 min 2 min 0 W/m 3,2 km/h (1 Bft) 97,87 %
20.02.2020 03:30 6,5 C 5,0 C 4,4 C 94 % 1018,5 hPa 0,0 l/m 0 min 2 min 0 W/m 3,2 km/h (1 Bft) 100,00 %
20.02.2020 03:32 6,5 C 5,0 C 4,4 C 94 % 1018,4 hPa 0,0 l/m 0 min 2 min 0 W/m 6,4 km/h (2 Bft) 100,00 %
20.02.2020 03:34 6,5 C 5,6 C 4,4 C 94 % 1018,4 hPa 0,0 l/m 0 min 2 min 0 W/m 3,2 km/h (1 Bft) 97,83 %
20.02.2020 03:36 6,5 C 5,6 C 4,4 C 94 % 1018,4 hPa 0,0 l/m 0 min 2 min 0 W/m 16,1 km/h (3 Bft) 97,87 %
20.02.2020 03:38 6,5 C 5,6 C 5,0 C 94 % 1018,4 hPa 0,0 l/m 0 min 2 min 0 W/m 16,1 km/h (3 Bft) 100,00 %
20.02.2020 03:40 6,5 C 5,6 C 5,0 C 94 % 1018,4 hPa 0,0 l/m 0 min 2 min 0 W/m 16,1 km/h (3 Bft) 100,00 %
20.02.2020 03:42 6,5 C 5,6 C 5,0 C 94 % 1018,4 hPa 0,0 l/m 0 min 2 min 0 W/m 16,1 km/h (3 Bft) 97,87 %
20.02.2020 03:44 6,5 C 5,6 C 5,0 C 94 % 1018,4 hPa 0,0 l/m 0 min 2 min 0 W/m 6,4 km/h (2 Bft) 97,83 %
20.02.2020 03:46 6,5 C 5,6 C 5,0 C 94 % 1018,4 hPa 0,0 l/m 0 min 2 min 0 W/m 16,1 km/h (3 Bft) 97,87 %
20.02.2020 03:48 6,5 C 5,6 C 5,0 C 94 % 1018,3 hPa 0,0 l/m 0 min 2 min 0 W/m 12,9 km/h (3 Bft) 97,87 %
20.02.2020 03:50 6,5 C 5,6 C 5,0 C 94 % 1018,4 hPa 0,0 l/m 0 min 2 min 0 W/m 6,4 km/h (2 Bft) 97,87 %
20.02.2020 03:52 6,6 C 5,6 C 5,0 C 94 % 1018,3 hPa 0,2 l/m 0 min 2 min 0 W/m 12,9 km/h (3 Bft) 97,87 %
20.02.2020 03:54 6,6 C 5,6 C 5,0 C 94 % 1018,3 hPa 0,0 l/m 0 min 2 min 0 W/m 12,9 km/h (3 Bft) 97,87 %
20.02.2020 03:56 6,6 C 5,6 C 5,0 C 94 % 1018,2 hPa 0,0 l/m 0 min 2 min 0 W/m 12,9 km/h (3 Bft) 97,83 %
20.02.2020 03:58 6,6 C 5,6 C 5,0 C 94 % 1018,2 hPa 0,0 l/m 0 min 0 min 0 W/m 3,2 km/h (1 Bft) 97,87 %
20.02.2020 04:00 6,6 C 5,6 C 5,0 C 94 % 1018,2 hPa 0,0 l/m 0 min 0 min 0 W/m 12,9 km/h (3 Bft) 95,74 %
20.02.2020 04:02 6,6 C 5,6 C 5,0 C 94 % 1018,2 hPa 0,0 l/m 0 min 0 min 0 W/m 16,1 km/h (3 Bft) 100,00 %
20.02.2020 04:04 6,6 C 5,6 C 5,0 C 94 % 1018,0 hPa 0,0 l/m 0 min 0 min 0 W/m 12,9 km/h (3 Bft) 97,87 %
20.02.2020 04:06 6,6 C 5,6 C 5,0 C 94 % 1018,0 hPa 0,0 l/m 0 min 0 min 0 W/m 19,3 km/h (3 Bft) 95,74 %
20.02.2020 04:08 6,6 C 5,6 C 5,0 C 94 % 1018,0 hPa 0,0 l/m 0 min 0 min 0 W/m 22,5 km/h (4 Bft) 97,83 %
20.02.2020 04:10 6,6 C 5,6 C 5,0 C 94 % 1018,0 hPa 0,0 l/m 0 min 0 min 0 W/m 0,0 km/h (0 Bft) 95,74 %
20.02.2020 04:12 6,7 C 5,6 C 5,0 C 94 % 1018,0 hPa 0,0 l/m 0 min 0 min 0 W/m 0,0 km/h (0 Bft) 97,87 %
20.02.2020 04:14 6,7 C 5,6 C 5,0 C 94 % 1017,9 hPa 0,0 l/m 0 min 0 min 0 W/m 0,0 km/h (0 Bft) 97,87 %
20.02.2020 04:16 6,7 C 6,1 C 5,0 C 94 % 1017,9 hPa 0,0 l/m 0 min 0 min 0 W/m 19,3 km/h (3 Bft) 97,87 %
20.02.2020 04:18 6,7 C 6,1 C 5,0 C 94 % 1018,0 hPa 0,0 l/m 0 min 0 min 0 W/m 16,1 km/h (3 Bft) 95,74 %
20.02.2020 04:20 6,7 C 6,1 C 5,0 C 94 % 1017,9 hPa 0,0 l/m 0 min 0 min 0 W/m 19,3 km/h (3 Bft) 97,83 %
20.02.2020 04:22 6,7 C 6,1 C 5,0 C 94 % 1017,9 hPa 0,0 l/m 0 min 0 min 0 W/m 22,5 km/h (4 Bft) 100,00 %
20.02.2020 04:24 6,7 C 6,1 C 5,0 C 94 % 1017,9 hPa 0,0 l/m 0 min 2 min 0 W/m 16,1 km/h (3 Bft) 97,87 %
20.02.2020 04:26 6,7 C 6,1 C 5,0 C 94 % 1017,9 hPa 0,0 l/m 0 min 0 min 0 W/m 22,5 km/h (4 Bft) 97,87 %
20.02.2020 04:28 6,8 C 6,1 C 5,0 C 94 % 1017,9 hPa 0,0 l/m 0 min 0 min 0 W/m 25,7 km/h (4 Bft) 100,00 %
20.02.2020 04:30 6,8 C 6,1 C 5,0 C 94 % 1017,8 hPa 0,0 l/m 0 min 0 min 0 W/m 16,1 km/h (3 Bft) 95,74 %
20.02.2020 04:32 6,8 C 6,1 C 5,0 C 94 % 1017,8 hPa 0,0 l/m 0 min 0 min 0 W/m 0,0 km/h (0 Bft) 100,00 %
20.02.2020 04:34 6,8 C 6,1 C 5,0 C 94 % 1017,9 hPa 0,0 l/m 0 min 0 min 0 W/m 9,7 km/h (2 Bft) 100,00 %
20.02.2020 04:36 6,8 C 6,1 C 5,0 C 94 % 1017,9 hPa 0,0 l/m 0 min 0 min 0 W/m 16,1 km/h (3 Bft) 100,00 %
20.02.2020 04:38 6,8 C 6,1 C 5,0 C 94 % 1017,9 hPa 0,0 l/m 0 min 0 min 0 W/m 6,4 km/h (2 Bft) 100,00 %
20.02.2020 04:40 6,8 C 6,1 C 5,0 C 94 % 1017,9 hPa 0,0 l/m 0 min 0 min 0 W/m 0,0 km/h (0 Bft) 100,00 %
20.02.2020 04:42 6,8 C 6,1 C 5,0 C 94 % 1017,9 hPa 0,0 l/m 0 min 0 min 0 W/m 12,9 km/h (3 Bft) 97,83 %
20.02.2020 04:44 6,8 C 6,1 C 5,6 C 94 % 1017,9 hPa 0,0 l/m 0 min 2 min 0 W/m 16,1 km/h (3 Bft) 97,87 %
20.02.2020 04:46 6,9 C 6,1 C 5,6 C 94 % 1017,8 hPa 0,0 l/m 0 min 0 min 0 W/m 16,1 km/h (3 Bft) 93,62 %
20.02.2020 04:48 6,9 C 6,1 C 5,6 C 94 % 1017,8 hPa 0,0 l/m 0 min 0 min 0 W/m 19,3 km/h (3 Bft) 97,87 %
20.02.2020 04:50 6,9 C 6,1 C 5,6 C 94 % 1017,8 hPa 0,0 l/m 0 min 2 min 0 W/m 19,3 km/h (3 Bft) 97,87 %
20.02.2020 04:52 6,9 C 6,1 C 5,6 C 94 % 1017,8 hPa 0,0 l/m 0 min 2 min 0 W/m 6,4 km/h (2 Bft) 97,87 %
20.02.2020 04:54 6,9 C 6,1 C 5,6 C 94 % 1017,7 hPa 0,0 l/m 0 min 0 min 0 W/m 6,4 km/h (2 Bft) 97,83 %
20.02.2020 04:56 6,9 C 6,1 C 5,6 C 94 % 1017,7 hPa 0,0 l/m 0 min 0 min 0 W/m 25,7 km/h (4 Bft) 97,87 %
20.02.2020 04:58 6,9 C 6,1 C 5,6 C 94 % 1017,7 hPa 0,0 l/m 0 min 0 min 0 W/m 19,3 km/h (3 Bft) 95,74 %
20.02.2020 05:00 6,9 C 6,7 C 5,6 C 94 % 1017,7 hPa 0,0 l/m 0 min 0 min 0 W/m 19,3 km/h (3 Bft) 95,74 %
20.02.2020 05:02 7,0 C 6,7 C 5,6 C 94 % 1017,7 hPa 0,0 l/m 0 min 0 min 0 W/m 16,1 km/h (3 Bft) 97,87 %
20.02.2020 05:04 7,0 C 6,7 C 5,6 C 94 % 1017,7 hPa 0,0 l/m 0 min 0 min 0 W/m 22,5 km/h (4 Bft) 97,67 %
20.02.2020 05:06 7,0 C 6,7 C 5,6 C 94 % 1017,7 hPa 0,0 l/m 0 min 0 min 0 W/m 12,9 km/h (3 Bft) 97,83 %
20.02.2020 05:08 7,1 C 6,7 C 5,6 C 94 % 1017,7 hPa 0,0 l/m 0 min 0 min 0 W/m 19,3 km/h (3 Bft) 97,87 %
20.02.2020 05:10 7,1 C 6,7 C 5,6 C 94 % 1017,7 hPa 0,0 l/m 0 min 0 min 0 W/m 19,3 km/h (3 Bft) 95,74 %
20.02.2020 05:12 7,1 C 6,7 C 5,6 C 94 % 1017,8 hPa 0,0 l/m 0 min 0 min 0 W/m 32,2 km/h (5 Bft) 95,74 %
20.02.2020 05:14 7,1 C 6,7 C 5,6 C 94 % 1017,8 hPa 0,0 l/m 0 min 0 min 0 W/m 12,9 km/h (3 Bft) 97,87 %
20.02.2020 05:16 7,1 C 6,7 C 5,6 C 94 % 1017,7 hPa 0,0 l/m 0 min 0 min 0 W/m 16,1 km/h (3 Bft) 97,87 %
20.02.2020 05:18 7,1 C 6,7 C 6,1 C 94 % 1017,7 hPa 0,0 l/m 0 min 0 min 0 W/m 25,7 km/h (4 Bft) 97,83 %
20.02.2020 05:20 7,1 C 6,7 C 6,1 C 94 % 1017,7 hPa 0,0 l/m 0 min 0 min 0 W/m 19,3 km/h (3 Bft) 95,74 %
20.02.2020 05:22 7,1 C 6,7 C 6,1 C 94 % 1017,7 hPa 0,0 l/m 0 min 0 min 0 W/m 12,9 km/h (3 Bft) 95,74 %
20.02.2020 05:24 7,2 C 6,7 C 6,1 C 94 % 1017,7 hPa 0,0 l/m 0 min 0 min 0 W/m 6,4 km/h (2 Bft) 95,74 %
20.02.2020 05:26 7,2 C 6,7 C 6,1 C 94 % 1017,7 hPa 0,0 l/m 0 min 0 min 0 W/m 19,3 km/h (3 Bft) 97,87 %
20.02.2020 05:28 7,2 C 6,7 C 6,1 C 94 % 1017,7 hPa 0,0 l/m 0 min 0 min 0 W/m 16,1 km/h (3 Bft) 93,62 %
20.02.2020 05:30 7,2 C 6,7 C 6,1 C 94 % 1017,7 hPa 0,0 l/m 0 min 0 min 0 W/m 16,1 km/h (3 Bft) 95,65 %
20.02.2020 05:32 7,2 C 6,7 C 6,1 C 94 % 1017,7 hPa 0,0 l/m 0 min 0 min 0 W/m 12,9 km/h (3 Bft) 95,74 %
20.02.2020 05:34 7,2 C 6,7 C 6,1 C 94 % 1017,6 hPa 0,0 l/m 0 min 0 min 0 W/m 19,3 km/h (3 Bft) 95,74 %
20.02.2020 05:36 7,2 C 6,7 C 6,1 C 94 % 1017,6 hPa 0,0 l/m 0 min 0 min 0 W/m 19,3 km/h (3 Bft) 93,62 %
20.02.2020 05:38 7,2 C 6,7 C 6,1 C 94 % 1017,6 hPa 0,0 l/m 0 min 0 min 0 W/m 22,5 km/h (4 Bft) 93,62 %
20.02.2020 05:40 7,2 C 6,7 C 6,1 C 93 % 1017,6 hPa 0,0 l/m 0 min 0 min 0 W/m 16,1 km/h (3 Bft) 95,74 %
20.02.2020 05:42 7,2 C 6,7 C 6,1 C 93 % 1017,6 hPa 0,0 l/m 0 min 0 min 0 W/m 12,9 km/h (3 Bft) 97,83 %
20.02.2020 05:44 7,2 C 6,7 C 6,1 C 93 % 1017,6 hPa 0,0 l/m 0 min 0 min 0 W/m 19,3 km/h (3 Bft) 97,87 %
20.02.2020 05:46 7,2 C 6,7 C 6,1 C 93 % 1017,6 hPa 0,0 l/m 0 min 0 min 0 W/m 16,1 km/h (3 Bft) 97,87 %
20.02.2020 05:48 7,3 C 6,7 C 6,1 C 93 % 1017,6 hPa 0,0 l/m 0 min 0 min 0 W/m 29,0 km/h (5 Bft) 97,87 %
20.02.2020 05:50 7,3 C 6,7 C 6,1 C 93 % 1017,5 hPa 0,0 l/m 0 min 0 min 0 W/m 12,9 km/h (3 Bft) 97,83 %
20.02.2020 05:52 7,3 C 6,7 C 6,1 C 93 % 1017,5 hPa 0,0 l/m 0 min 0 min 0 W/m 16,1 km/h (3 Bft) 97,83 %
20.02.2020 05:54 7,3 C 6,7 C 6,1 C 93 % 1017,5 hPa 0,0 l/m 0 min 0 min 0 W/m 12,9 km/h (3 Bft) 95,74 %
20.02.2020 05:56 7,3 C 6,7 C 6,1 C 93 % 1017,5 hPa 0,0 l/m 0 min 0 min 0 W/m 12,9 km/h (3 Bft) 97,87 %
20.02.2020 05:58 7,3 C 6,7 C 6,1 C 93 % 1017,4 hPa 0,0 l/m 0 min 0 min 0 W/m 19,3 km/h (3 Bft) 97,87 %
20.02.2020 06:00 7,3 C 6,7 C 6,1 C 93 % 1017,5 hPa 0,0 l/m 0 min 0 min 0 W/m 3,2 km/h (1 Bft) 95,74 %
20.02.2020 06:02 7,3 C 6,7 C 6,1 C 93 % 1017,5 hPa 0,0 l/m 0 min 0 min 0 W/m 19,3 km/h (3 Bft) 97,87 %
20.02.2020 06:04 7,3 C 6,7 C 6,1 C 93 % 1017,6 hPa 0,0 l/m 0 min 0 min 0 W/m 0,0 km/h (0 Bft) 97,83 %
20.02.2020 06:07 7,3 C 6,7 C 6,1 C 93 % 1017,5 hPa 0,0 l/m 0 min 0 min 0 W/m 12,9 km/h (3 Bft) 97,56 %
20.02.2020 06:08 7,3 C 6,7 C 6,1 C 93 % 1017,5 hPa 0,0 l/m 0 min 0 min 0 W/m 3,2 km/h (1 Bft) 100,00 %
20.02.2020 06:10 7,3 C 6,7 C 6,1 C 93 % 1017,5 hPa 0,0 l/m 0 min 0 min 0 W/m 19,3 km/h (3 Bft) 95,74 %
20.02.2020 06:12 7,3 C 6,7 C 6,1 C 93 % 1017,4 hPa 0,0 l/m 0 min 0 min 0 W/m 12,9 km/h (3 Bft) 100,00 %
20.02.2020 06:14 7,3 C 6,7 C 6,1 C 93 % 1017,4 hPa 0,0 l/m 0 min 0 min 0 W/m 12,9 km/h (3 Bft) 100,00 %
20.02.2020 06:16 7,3 C 6,7 C 6,1 C 93 % 1017,4 hPa 0,0 l/m 0 min 0 min 0 W/m 12,9 km/h (3 Bft) 100,00 %
20.02.2020 06:18 7,3 C 6,7 C 6,1 C 93 % 1017,4 hPa 0,0 l/m 0 min 0 min 0 W/m 3,2 km/h (1 Bft) 95,74 %
20.02.2020 06:20 7,3 C 6,7 C 6,1 C 93 % 1017,4 hPa 0,0 l/m 0 min 0 min 0 W/m 12,9 km/h (3 Bft) 97,87 %
20.02.2020 06:22 7,3 C 6,7 C 6,1 C 93 % 1017,3 hPa 0,0 l/m 0 min 0 min 0 W/m 19,3 km/h (3 Bft) 97,87 %
20.02.2020 06:24 7,3 C 6,7 C 6,1 C 93 % 1017,3 hPa 0,0 l/m 0 min 0 min 0 W/m 12,9 km/h (3 Bft) 97,87 %
20.02.2020 06:26 7,3 C 6,7 C 6,1 C 93 % 1017,3 hPa 0,0 l/m 0 min 0 min 0 W/m 12,9 km/h (3 Bft) 97,87 %
20.02.2020 06:28 7,3 C 6,7 C 6,1 C 93 % 1017,3 hPa 0,0 l/m 0 min 0 min 0 W/m 12,9 km/h (3 Bft) 95,65 %
20.02.2020 06:30 7,3 C 6,7 C 6,1 C 93 % 1017,2 hPa 0,0 l/m 0 min 0 min 0 W/m 6,4 km/h (2 Bft) 97,87 %
20.02.2020 06:32 7,3 C 6,7 C 6,1 C 93 % 1017,3 hPa 0,0 l/m 0 min 0 min 0 W/m 19,3 km/h (3 Bft) 97,87 %
20.02.2020 06:34 7,3 C 6,7 C 6,1 C 93 % 1017,2 hPa 0,0 l/m 0 min 0 min 0 W/m 12,9 km/h (3 Bft) 97,87 %
20.02.2020 06:36 7,3 C 6,7 C 6,1 C 93 % 1017,2 hPa 0,0 l/m 0 min 0 min 0 W/m 12,9 km/h (3 Bft) 97,87 %
20.02.2020 06:38 7,3 C 6,7 C 6,1 C 93 % 1017,2 hPa 0,0 l/m 0 min 0 min 0 W/m 3,2 km/h (1 Bft) 95,74 %
20.02.2020 06:40 7,3 C 6,7 C 6,1 C 93 % 1017,2 hPa 0,0 l/m 0 min 0 min 0 W/m 22,5 km/h (4 Bft) 97,83 %
20.02.2020 06:42 7,3 C 6,7 C 6,1 C 93 % 1017,2 hPa 0,0 l/m 0 min 0 min 0 W/m 12,9 km/h (3 Bft) 97,87 %
20.02.2020 06:44 7,3 C 6,7 C 6,1 C 93 % 1017,2 hPa 0,0 l/m 0 min 0 min 0 W/m 16,1 km/h (3 Bft) 97,87 %
20.02.2020 06:46 7,3 C 6,7 C 6,1 C 93 % 1017,2 hPa 0,0 l/m 0 min 0 min 0 W/m 16,1 km/h (3 Bft) 97,87 %
20.02.2020 06:48 7,3 C 6,7 C 6,1 C 93 % 1017,2 hPa 0,0 l/m 0 min 0 min 0 W/m 9,7 km/h (2 Bft) 97,87 %
20.02.2020 06:50 7,3 C 6,7 C 6,1 C 93 % 1017,2 hPa 0,0 l/m 0 min 0 min 0 W/m 12,9 km/h (3 Bft) 97,87 %
20.02.2020 06:52 7,3 C 6,7 C 6,1 C 93 % 1017,2 hPa 0,0 l/m 0 min 0 min 0 W/m 22,5 km/h (4 Bft) 97,83 %
20.02.2020 06:54 7,3 C 6,7 C 6,1 C 93 % 1017,1 hPa 0,0 l/m 0 min 0 min 0 W/m 25,7 km/h (4 Bft) 95,74 %
20.02.2020 06:56 7,3 C 6,7 C 6,1 C 93 % 1017,1 hPa 0,0 l/m 0 min 0 min 0 W/m 6,4 km/h (2 Bft) 97,87 %
20.02.2020 06:58 7,3 C 6,7 C 6,1 C 93 % 1017,1 hPa 0,0 l/m 0 min 0 min 0 W/m 19,3 km/h (3 Bft) 93,62 %
20.02.2020 07:00 7,3 C 6,7 C 6,1 C 93 % 1017,1 hPa 0,0 l/m 0 min 0 min 0 W/m 12,9 km/h (3 Bft) 97,87 %
20.02.2020 07:02 7,3 C 6,7 C 6,1 C 93 % 1017,2 hPa 0,0 l/m 0 min 0 min 0 W/m 12,9 km/h (3 Bft) 97,83 %
20.02.2020 07:04 7,3 C 6,7 C 6,1 C 93 % 1017,2 hPa 0,0 l/m 0 min 0 min 0 W/m 6,4 km/h (2 Bft) 97,87 %
20.02.2020 07:06 7,3 C 6,7 C 6,1 C 93 % 1017,1 hPa 0,0 l/m 0 min 0 min 0 W/m 3,2 km/h (1 Bft) 97,87 %
20.02.2020 07:08 7,3 C 6,7 C 6,1 C 93 % 1017,1 hPa 0,0 l/m 0 min 0 min 0 W/m 12,9 km/h (3 Bft) 97,87 %
20.02.2020 07:10 7,2 C 6,7 C 5,6 C 93 % 1017,1 hPa 0,0 l/m 0 min 0 min 0 W/m 3,2 km/h (1 Bft) 95,74 %
20.02.2020 07:12 7,2 C 6,7 C 6,1 C 93 % 1017,1 hPa 0,0 l/m 0 min 0 min 0 W/m 12,9 km/h (3 Bft) 97,87 %
20.02.2020 07:14 7,2 C 6,7 C 6,1 C 93 % 1017,1 hPa 0,0 l/m 0 min 0 min 0 W/m 12,9 km/h (3 Bft) 100,00 %
20.02.2020 07:16 7,2 C 6,7 C 6,1 C 93 % 1017,0 hPa 0,0 l/m 0 min 0 min 0 W/m 6,4 km/h (2 Bft) 100,00 %
20.02.2020 07:18 7,2 C 6,7 C 6,1 C 93 % 1017,0 hPa 0,0 l/m 0 min 0 min 0 W/m 22,5 km/h (4 Bft) 97,87 %
20.02.2020 07:20 7,2 C 6,7 C 6,1 C 93 % 1017,0 hPa 0,0 l/m 0 min 0 min 0 W/m 6,4 km/h (2 Bft) 100,00 %
20.02.2020 07:22 7,2 C 6,7 C 6,1 C 93 % 1017,1 hPa 0,0 l/m 0 min 0 min 0 W/m 19,3 km/h (3 Bft) 100,00 %
20.02.2020 07:24 7,2 C 6,7 C 6,1 C 93 % 1017,1 hPa 0,0 l/m 0 min 0 min 0 W/m 19,3 km/h (3 Bft) 100,00 %
20.02.2020 07:26 7,3 C 6,7 C 6,1 C 93 % 1017,1 hPa 0,0 l/m 0 min 0 min 0 W/m 19,3 km/h (3 Bft) 100,00 %
20.02.2020 07:28 7,3 C 6,7 C 6,1 C 93 % 1017,1 hPa 0,0 l/m 0 min 0 min 0 W/m 16,1 km/h (3 Bft) 100,00 %
20.02.2020 07:30 7,3 C 6,7 C 6,1 C 93 % 1017,1 hPa 0,0 l/m 0 min 0 min 0 W/m 16,1 km/h (3 Bft) 100,00 %
20.02.2020 07:32 7,3 C 6,7 C 6,1 C 93 % 1017,2 hPa 0,0 l/m 0 min 0 min 0 W/m 0,0 km/h (0 Bft) 100,00 %
20.02.2020 07:34 7,3 C 6,7 C 6,1 C 93 % 1017,2 hPa 0,0 l/m 0 min 0 min 0 W/m 19,3 km/h (3 Bft) 95,74 %
20.02.2020 07:36 7,3 C 6,7 C 6,1 C 93 % 1017,2 hPa 0,0 l/m 0 min 0 min 0 W/m 16,1 km/h (3 Bft) 100,00 %
20.02.2020 07:38 7,3 C 6,7 C 6,1 C 93 % 1017,1 hPa 0,0 l/m 0 min 0 min 0 W/m 16,1 km/h (3 Bft) 100,00 %
20.02.2020 07:40 7,3 C 6,7 C 6,1 C 93 % 1017,1 hPa 0,0 l/m 0 min 0 min 0 W/m 6,4 km/h (2 Bft) 100,00 %
20.02.2020 07:42 7,3 C 6,7 C 6,1 C 93 % 1017,2 hPa 0,0 l/m 0 min 0 min 0 W/m 16,1 km/h (3 Bft) 100,00 %
20.02.2020 07:44 7,3 C 6,7 C 6,1 C 93 % 1017,1 hPa 0,0 l/m 0 min 0 min 0 W/m 19,3 km/h (3 Bft) 100,00 %
20.02.2020 07:46 7,3 C 6,7 C 6,1 C 93 % 1017,2 hPa 0,0 l/m 0 min 0 min 0 W/m 0,0 km/h (0 Bft) 100,00 %
20.02.2020 07:48 7,3 C 6,7 C 6,1 C 93 % 1017,1 hPa 0,0 l/m 0 min 0 min 0 W/m 12,9 km/h (3 Bft) 100,00 %
20.02.2020 07:50 7,3 C 6,7 C 6,1 C 93 % 1017,2 hPa 0,0 l/m 0 min 0 min 0 W/m 16,1 km/h (3 Bft) 100,00 %
20.02.2020 07:52 7,4 C 6,7 C 6,1 C 93 % 1017,2 hPa 0,0 l/m 0 min 0 min 0 W/m 16,1 km/h (3 Bft) 100,00 %
20.02.2020 07:54 7,4 C 6,7 C 6,1 C 93 % 1017,2 hPa 0,0 l/m 0 min 0 min 2 W/m 16,1 km/h (3 Bft) 100,00 %
20.02.2020 07:56 7,4 C 6,7 C 6,1 C 93 % 1017,1 hPa 0,0 l/m 0 min 0 min 5 W/m 12,9 km/h (3 Bft) 100,00 %
20.02.2020 07:58 7,4 C 7,2 C 6,1 C 93 % 1017,1 hPa 0,0 l/m 0 min 0 min 5 W/m 12,9 km/h (3 Bft) 100,00 %
20.02.2020 08:00 7,4 C 7,2 C 6,1 C 93 % 1017,1 hPa 0,0 l/m 0 min 0 min 6 W/m 19,3 km/h (3 Bft) 97,87 %
20.02.2020 08:02 7,4 C 7,2 C 6,1 C 93 % 1017,1 hPa 0,0 l/m 0 min 0 min 7 W/m 19,3 km/h (3 Bft) 97,83 %
20.02.2020 08:04 7,4 C 7,2 C 6,1 C 93 % 1017,2 hPa 0,0 l/m 0 min 0 min 9 W/m 16,1 km/h (3 Bft) 97,87 %
20.02.2020 08:06 7,4 C 7,2 C 6,7 C 93 % 1017,1 hPa 0,0 l/m 0 min 0 min 9 W/m 22,5 km/h (4 Bft) 95,74 %
20.02.2020 08:08 7,4 C 7,2 C 6,1 C 93 % 1017,1 hPa 0,0 l/m 0 min 0 min 9 W/m 3,2 km/h (1 Bft) 95,74 %
20.02.2020 08:10 7,5 C 7,2 C 6,7 C 93 % 1017,1 hPa 0,0 l/m 0 min 0 min 11 W/m 16,1 km/h (3 Bft) 97,87 %
20.02.2020 08:12 7,5 C 7,2 C 6,7 C 93 % 1017,1 hPa 0,0 l/m 0 min 0 min 11 W/m 6,4 km/h (2 Bft) 95,65 %
20.02.2020 08:14 7,5 C 7,2 C 6,7 C 93 % 1017,1 hPa 0,0 l/m 0 min 0 min 12 W/m 12,9 km/h (3 Bft) 93,62 %
20.02.2020 08:16 7,5 C 7,2 C 6,7 C 93 % 1017,2 hPa 0,0 l/m 0 min 0 min 12 W/m 12,9 km/h (3 Bft) 95,74 %
20.02.2020 08:18 7,5 C 7,2 C 6,7 C 92 % 1017,1 hPa 0,0 l/m 0 min 0 min 14 W/m 19,3 km/h (3 Bft) 93,62 %
20.02.2020 08:20 7,6 C 7,2 C 6,7 C 92 % 1017,2 hPa 0,0 l/m 0 min 0 min 15 W/m 6,4 km/h (2 Bft) 95,74 %
20.02.2020 08:22 7,6 C 7,2 C 6,7 C 92 % 1017,2 hPa 0,0 l/m 0 min 0 min 19 W/m 16,1 km/h (3 Bft) 95,74 %
20.02.2020 08:24 7,6 C 7,2 C 6,7 C 92 % 1017,2 hPa 0,0 l/m 0 min 0 min 18 W/m 16,1 km/h (3 Bft) 95,65 %
20.02.2020 08:26 7,6 C 7,2 C 6,7 C 92 % 1017,2 hPa 0,0 l/m 0 min 0 min 18 W/m 12,9 km/h (3 Bft) 97,87 %
20.02.2020 08:28 7,6 C 7,2 C 6,7 C 92 % 1017,2 hPa 0,0 l/m 0 min 0 min 19 W/m 19,3 km/h (3 Bft) 93,62 %
20.02.2020 08:30 7,6 C 7,2 C 6,7 C 92 % 1017,2 hPa 0,0 l/m 0 min 0 min 21 W/m 16,1 km/h (3 Bft) 93,62 %
20.02.2020 08:32 7,6 C 7,2 C 6,7 C 92 % 1017,1 hPa 0,0 l/m 0 min 0 min 25 W/m 12,9 km/h (3 Bft) 95,74 %
20.02.2020 08:34 7,7 C 7,2 C 6,7 C 92 % 1017,1 hPa 0,0 l/m 0 min 0 min 27 W/m 16,1 km/h (3 Bft) 95,74 %
20.02.2020 08:36 7,7 C 7,2 C 6,7 C 92 % 1017,1 hPa 0,0 l/m 0 min 0 min 26 W/m 12,9 km/h (3 Bft) 95,65 %
20.02.2020 08:38 7,7 C 7,2 C 6,7 C 92 % 1017,1 hPa 0,0 l/m 0 min 0 min 24 W/m 16,1 km/h (3 Bft) 95,74 %
20.02.2020 08:40 7,7 C 7,2 C 6,7 C 92 % 1017,1 hPa 0,0 l/m 0 min 0 min 23 W/m 16,1 km/h (3 Bft) 95,74 %
20.02.2020 08:42 7,7 C 7,2 C 6,7 C 92 % 1017,1 hPa 0,0 l/m 0 min 0 min 23 W/m 22,5 km/h (4 Bft) 93,62 %
20.02.2020 08:44 7,7 C 7,2 C 6,7 C 92 % 1017,1 hPa 0,0 l/m 0 min 0 min 20 W/m 19,3 km/h (3 Bft) 97,87 %
20.02.2020 08:46 7,8 C 7,2 C 6,7 C 92 % 1017,0 hPa 0,0 l/m 0 min 0 min 18 W/m 16,1 km/h (3 Bft) 97,87 %
20.02.2020 08:48 7,8 C 7,2 C 6,7 C 92 % 1017,1 hPa 0,0 l/m 0 min 0 min 19 W/m 19,3 km/h (3 Bft) 97,83 %
20.02.2020 08:50 7,8 C 7,2 C 6,7 C 92 % 1017,1 hPa 0,0 l/m 0 min 0 min 22 W/m 19,3 km/h (3 Bft) 95,74 %
20.02.2020 08:52 7,8 C 7,8 C 6,7 C 92 % 1017,2 hPa 0,0 l/m 0 min 0 min 25 W/m 25,7 km/h (4 Bft) 95,74 %
20.02.2020 08:54 7,8 C 7,8 C 6,7 C 92 % 1017,2 hPa 0,0 l/m 0 min 0 min 29 W/m 16,1 km/h (3 Bft) 97,87 %
20.02.2020 08:56 7,8 C 7,8 C 7,2 C 91 % 1017,2 hPa 0,0 l/m 0 min 0 min 28 W/m 16,1 km/h (3 Bft) 95,74 %
20.02.2020 08:58 7,9 C 7,8 C 6,7 C 91 % 1017,1 hPa 0,0 l/m 0 min 0 min 24 W/m 19,3 km/h (3 Bft) 97,87 %
20.02.2020 09:00 7,9 C 7,8 C 6,7 C 91 % 1017,1 hPa 0,0 l/m 0 min 0 min 24 W/m 22,5 km/h (4 Bft) 97,83 %
20.02.2020 09:02 7,9 C 7,8 C 7,2 C 91 % 1017,1 hPa 0,0 l/m 0 min 0 min 26 W/m 16,1 km/h (3 Bft) 97,87 %
20.02.2020 09:04 7,9 C 7,8 C 6,7 C 91 % 1017,2 hPa 0,0 l/m 0 min 0 min 26 W/m 16,1 km/h (3 Bft) 97,87 %
20.02.2020 09:06 7,9 C 7,8 C 7,2 C 91 % 1017,1 hPa 0,0 l/m 0 min 0 min 24 W/m 25,7 km/h (4 Bft) 95,74 %
20.02.2020 09:08 7,9 C 7,8 C 7,2 C 91 % 1017,1 hPa 0,0 l/m 0 min 0 min 22 W/m 29,0 km/h (5 Bft) 100,00 %
20.02.2020 09:10 7,9 C 7,8 C 7,2 C 91 % 1017,1 hPa 0,0 l/m 0 min 0 min 21 W/m 19,3 km/h (3 Bft) 100,00 %
20.02.2020 09:12 8,0 C 7,8 C 7,2 C 91 % 1017,1 hPa 0,0 l/m 0 min 0 min 19 W/m 25,7 km/h (4 Bft) 97,87 %
20.02.2020 09:14 8,0 C 7,8 C 7,2 C 91 % 1017,1 hPa 0,0 l/m 0 min 0 min 19 W/m 22,5 km/h (4 Bft) 95,74 %
20.02.2020 09:16 8,1 C 7,8 C 7,2 C 90 % 1017,1 hPa 0,0 l/m 0 min 0 min 19 W/m 25,7 km/h (4 Bft) 95,74 %
20.02.2020 09:18 8,1 C 7,8 C 7,2 C 90 % 1017,1 hPa 0,0 l/m 0 min 0 min 21 W/m 29,0 km/h (5 Bft) 97,87 %
20.02.2020 09:20 8,1 C 7,8 C 7,2 C 90 % 1017,0 hPa 0,0 l/m 0 min 0 min 24 W/m 35,4 km/h (5 Bft) 97,87 %
20.02.2020 09:22 8,1 C 7,8 C 7,2 C 90 % 1017,0 hPa 0,0 l/m 0 min 0 min 26 W/m 25,7 km/h (4 Bft) 97,87 %
20.02.2020 09:24 8,1 C 7,8 C 7,2 C 90 % 1017,0 hPa 0,0 l/m 0 min 0 min 31 W/m 22,5 km/h (4 Bft) 95,65 %
20.02.2020 09:26 8,1 C 7,8 C 7,2 C 90 % 1017,0 hPa 0,0 l/m 0 min 0 min 36 W/m 29,0 km/h (5 Bft) 97,87 %
20.02.2020 09:28 8,2 C 7,8 C 7,2 C 90 % 1017,0 hPa 0,0 l/m 0 min 0 min 44 W/m 29,0 km/h (5 Bft) 97,87 %
20.02.2020 09:30 8,2 C 7,8 C 7,2 C 89 % 1017,1 hPa 0,0 l/m 0 min 0 min 56 W/m 29,0 km/h (5 Bft) 97,87 %
20.02.2020 09:32 8,2 C 8,3 C 7,2 C 89 % 1017,1 hPa 0,0 l/m 0 min 0 min 63 W/m 35,4 km/h (5 Bft) 97,87 %
20.02.2020 09:34 8,3 C 8,3 C 7,8 C 89 % 1017,0 hPa 0,0 l/m 0 min 0 min 68 W/m 12,9 km/h (3 Bft) 97,83 %
20.02.2020 09:36 8,3 C 8,3 C 7,8 C 89 % 1017,0 hPa 0,0 l/m 0 min 0 min 95 W/m 32,2 km/h (5 Bft) 97,87 %
20.02.2020 09:38 8,3 C 8,3 C 7,8 C 89 % 1017,0 hPa 0,0 l/m 0 min 0 min 113 W/m 38,6 km/h (5 Bft) 97,87 %
20.02.2020 09:40 8,4 C 8,3 C 7,8 C 89 % 1017,1 hPa 0,0 l/m 0 min 0 min 82 W/m 29,0 km/h (5 Bft) 95,74 %
20.02.2020 09:42 8,4 C 8,3 C 7,8 C 88 % 1017,0 hPa 0,0 l/m 0 min 0 min 63 W/m 22,5 km/h (4 Bft) 95,74 %
20.02.2020 09:44 8,5 C 8,3 C 7,8 C 88 % 1017,0 hPa 0,0 l/m 0 min 0 min 68 W/m 25,7 km/h (4 Bft) 97,87 %
20.02.2020 09:46 8,5 C 8,3 C 7,8 C 88 % 1016,9 hPa 0,0 l/m 0 min 0 min 77 W/m 25,7 km/h (4 Bft) 97,83 %
20.02.2020 09:48 8,6 C 8,3 C 7,8 C 88 % 1016,9 hPa 0,0 l/m 0 min 0 min 72 W/m 22,5 km/h (4 Bft) 93,62 %
20.02.2020 09:50 8,6 C 8,3 C 7,8 C 87 % 1016,9 hPa 0,0 l/m 0 min 0 min 67 W/m 29,0 km/h (5 Bft) 97,87 %
20.02.2020 09:52 8,6 C 8,3 C 7,8 C 87 % 1016,9 hPa 0,0 l/m 0 min 0 min 50 W/m 32,2 km/h (5 Bft) 97,87 %
20.02.2020 09:54 8,6 C 8,3 C 7,8 C 87 % 1016,9 hPa 0,0 l/m 0 min 0 min 50 W/m 38,6 km/h (5 Bft) 97,87 %
20.02.2020 09:56 8,6 C 8,3 C 7,8 C 87 % 1016,8 hPa 0,0 l/m 0 min 0 min 56 W/m 38,6 km/h (5 Bft) 97,87 %
20.02.2020 09:58 8,6 C 8,3 C 7,8 C 87 % 1016,8 hPa 0,0 l/m 0 min 0 min 72 W/m 29,0 km/h (5 Bft) 97,83 %
20.02.2020 10:00 8,7 C 8,3 C 7,8 C 87 % 1016,7 hPa 0,0 l/m 0 min 0 min 88 W/m 38,6 km/h (5 Bft) 97,87 %
20.02.2020 10:02 8,7 C 8,3 C 7,8 C 86 % 1016,7 hPa 0,0 l/m 0 min 0 min 98 W/m 22,5 km/h (4 Bft) 97,87 %
20.02.2020 10:04 8,7 C 8,3 C 7,8 C 86 % 1016,7 hPa 0,0 l/m 0 min 0 min 99 W/m 35,4 km/h (5 Bft) 100,00 %
20.02.2020 10:06 8,7 C 8,3 C 7,8 C 86 % 1016,7 hPa 0,0 l/m 0 min 0 min 92 W/m 22,5 km/h (4 Bft) 100,00 %
20.02.2020 10:08 8,8 C 8,9 C 7,8 C 86 % 1016,7 hPa 0,0 l/m 0 min 0 min 92 W/m 41,8 km/h (6 Bft) 100,00 %
20.02.2020 10:10 8,8 C 8,9 C 8,3 C 86 % 1016,7 hPa 0,0 l/m 0 min 0 min 103 W/m 25,7 km/h (4 Bft) 100,00 %
20.02.2020 10:12 8,8 C 8,9 C 8,3 C 86 % 1016,7 hPa 0,0 l/m 0 min 0 min 116 W/m 41,8 km/h (6 Bft) 100,00 %
20.02.2020 10:14 8,8 C 8,9 C 8,3 C 86 % 1016,7 hPa 0,0 l/m 0 min 0 min 119 W/m 38,6 km/h (5 Bft) 100,00 %
20.02.2020 10:16 8,9 C 8,9 C 8,3 C 86 % 1016,7 hPa 0,0 l/m 0 min 0 min 132 W/m 32,2 km/h (5 Bft) 100,00 %
20.02.2020 10:18 8,9 C 8,9 C 8,3 C 86 % 1016,7 hPa 0,0 l/m 0 min 0 min 144 W/m 35,4 km/h (5 Bft) 100,00 %
20.02.2020 10:20 8,9 C 8,9 C 8,3 C 86 % 1016,7 hPa 0,0 l/m 0 min 0 min 139 W/m 29,0 km/h (5 Bft) 100,00 %
20.02.2020 10:22 8,9 C 8,9 C 8,3 C 86 % 1016,7 hPa 0,0 l/m 0 min 0 min 161 W/m 38,6 km/h (5 Bft) 100,00 %
20.02.2020 10:24 9,0 C 9,4 C 8,3 C 86 % 1016,6 hPa 0,0 l/m 2 min 0 min 186 W/m 51,5 km/h (7 Bft) 100,00 %
20.02.2020 10:26 9,0 C 9,4 C 8,3 C 85 % 1016,6 hPa 0,0 l/m 2 min 0 min 195 W/m 48,3 km/h (6 Bft) 100,00 %
20.02.2020 10:28 9,1 C 8,9 C 8,3 C 85 % 1016,6 hPa 0,0 l/m 2 min 0 min 180 W/m 32,2 km/h (5 Bft) 100,00 %
20.02.2020 10:30 9,1 C 8,9 C 8,3 C 85 % 1016,5 hPa 0,0 l/m 0 min 0 min 162 W/m 38,6 km/h (5 Bft) 100,00 %
20.02.2020 10:32 9,1 C 8,9 C 8,3 C 85 % 1016,6 hPa 0,0 l/m 0 min 0 min 131 W/m 29,0 km/h (5 Bft) 95,65 %
20.02.2020 10:34 9,1 C 8,9 C 8,3 C 85 % 1016,6 hPa 0,0 l/m 0 min 0 min 103 W/m 29,0 km/h (5 Bft) 97,87 %
20.02.2020 10:36 9,1 C 8,3 C 7,8 C 86 % 1016,6 hPa 0,0 l/m 0 min 0 min 88 W/m 29,0 km/h (5 Bft) 97,87 %
20.02.2020 10:38 9,1 C 8,3 C 7,8 C 86 % 1016,5 hPa 0,0 l/m 0 min 0 min 76 W/m 29,0 km/h (5 Bft) 97,87 %
20.02.2020 10:40 9,0 C 8,3 C 7,8 C 86 % 1016,6 hPa 0,0 l/m 0 min 0 min 76 W/m 41,8 km/h (6 Bft) 97,87 %
20.02.2020 10:42 9,0 C 8,3 C 7,8 C 86 % 1016,5 hPa 0,0 l/m 0 min 0 min 77 W/m 22,5 km/h (4 Bft) 97,87 %
20.02.2020 10:44 8,9 C 8,3 C 7,8 C 86 % 1016,5 hPa 0,0 l/m 0 min 0 min 89 W/m 22,5 km/h (4 Bft) 97,83 %
20.02.2020 10:46 8,9 C 8,9 C 8,3 C 86 % 1016,5 hPa 0,0 l/m 0 min 0 min 150 W/m 22,5 km/h (4 Bft) 97,87 %
20.02.2020 10:48 9,0 C 10,0 C 8,9 C 86 % 1016,6 hPa 0,0 l/m 2 min 0 min 252 W/m 29,0 km/h (5 Bft) 95,74 %
20.02.2020 10:50 9,0 C 10,0 C 8,9 C 86 % 1016,5 hPa 0,0 l/m 2 min 0 min 235 W/m 19,3 km/h (3 Bft) 95,74 %
20.02.2020 10:52 9,1 C 10,0 C 8,9 C 86 % 1016,5 hPa 0,0 l/m 2 min 0 min 201 W/m 29,0 km/h (5 Bft) 97,87 %
20.02.2020 10:54 9,1 C 10,0 C 8,9 C 85 % 1016,6 hPa 0,0 l/m 0 min 0 min 169 W/m 22,5 km/h (4 Bft) 95,74 %
20.02.2020 10:56 9,2 C 10,0 C 8,9 C 85 % 1016,6 hPa 0,0 l/m 2 min 0 min 213 W/m 22,5 km/h (4 Bft) 95,65 %
20.02.2020 10:58 9,2 C 10,0 C 8,9 C 85 % 1016,6 hPa 0,0 l/m 2 min 0 min 200 W/m 25,7 km/h (4 Bft) 97,87 %
20.02.2020 11:00 9,2 C 9,4 C 8,9 C 85 % 1016,5 hPa 0,0 l/m 0 min 0 min 162 W/m 35,4 km/h (5 Bft) 95,74 %
20.02.2020 11:02 9,3 C 9,4 C 8,9 C 84 % 1016,5 hPa 0,0 l/m 0 min 0 min 154 W/m 25,7 km/h (4 Bft) 95,74 %
20.02.2020 11:04 9,3 C 9,4 C 8,9 C 84 % 1016,5 hPa 0,0 l/m 0 min 0 min 144 W/m 29,0 km/h (5 Bft) 95,74 %
20.02.2020 11:06 9,3 C 9,4 C 8,9 C 84 % 1016,5 hPa 0,0 l/m 0 min 0 min 150 W/m 22,5 km/h (4 Bft) 95,65 %
20.02.2020 11:08 9,3 C 10,0 C 8,9 C 84 % 1016,5 hPa 0,0 l/m 2 min 2 min 207 W/m 22,5 km/h (4 Bft) 97,87 %
20.02.2020 11:10 9,4 C 10,0 C 8,9 C 84 % 1016,5 hPa 0,0 l/m 2 min 0 min 258 W/m 54,7 km/h (7 Bft) 97,87 %
20.02.2020 11:12 9,4 C 10,0 C 8,9 C 83 % 1016,5 hPa 0,0 l/m 2 min 0 min 222 W/m 38,6 km/h (5 Bft) 93,62 %
20.02.2020 11:14 9,4 C 10,0 C 8,9 C 83 % 1016,5 hPa 0,0 l/m 2 min 0 min 223 W/m 22,5 km/h (4 Bft) 95,74 %
20.02.2020 11:16 9,4 C 10,0 C 9,4 C 83 % 1016,6 hPa 0,0 l/m 2 min 0 min 239 W/m 19,3 km/h (3 Bft) 100,00 %
20.02.2020 11:18 9,5 C 10,6 C 9,4 C 83 % 1016,4 hPa 0,0 l/m 2 min 0 min 248 W/m 25,7 km/h (4 Bft) 100,00 %
20.02.2020 11:20 9,6 C 10,6 C 9,4 C 83 % 1016,3 hPa 0,0 l/m 2 min 0 min 249 W/m 29,0 km/h (5 Bft) 97,87 %
20.02.2020 11:22 9,6 C 10,6 C 8,9 C 83 % 1016,4 hPa 0,0 l/m 2 min 0 min 266 W/m 48,3 km/h (6 Bft) 97,87 %
20.02.2020 11:24 9,6 C 10,0 C 8,9 C 82 % 1016,3 hPa 0,0 l/m 2 min 0 min 216 W/m 25,7 km/h (4 Bft) 95,74 %
20.02.2020 11:26 9,6 C 10,6 C 8,9 C 83 % 1016,3 hPa 0,0 l/m 2 min 0 min 247 W/m 29,0 km/h (5 Bft) 97,87 %
20.02.2020 11:28 9,6 C 11,1 C 8,9 C 83 % 1016,3 hPa 0,0 l/m 2 min 0 min 252 W/m 22,5 km/h (4 Bft) 97,87 %
20.02.2020 11:30 9,6 C 12,8 C 8,9 C 83 % 1016,4 hPa 0,0 l/m 2 min 0 min 385 W/m 25,7 km/h (4 Bft) 97,87 %
20.02.2020 11:32 9,7 C 13,3 C 9,4 C 83 % 1016,4 hPa 0,0 l/m 2 min 0 min 526 W/m 35,4 km/h (5 Bft) 97,83 %
20.02.2020 11:34 9,8 C 13,9 C 9,4 C 83 % 1016,3 hPa 0,0 l/m 2 min 0 min 527 W/m 22,5 km/h (4 Bft) 97,87 %
20.02.2020 11:36 9,9 C 13,9 C 9,4 C 83 % 1016,4 hPa 0,0 l/m 2 min 0 min 508 W/m 25,7 km/h (4 Bft) 97,87 %
20.02.2020 11:38 9,9 C 13,3 C 9,4 C 83 % 1016,3 hPa 0,0 l/m 2 min 0 min 515 W/m 35,4 km/h (5 Bft) 97,87 %
20.02.2020 11:40 10,1 C 13,9 C 9,4 C 82 % 1016,2 hPa 0,0 l/m 2 min 0 min 528 W/m 29,0 km/h (5 Bft) 97,87 %
20.02.2020 11:42 10,1 C 13,3 C 9,4 C 81 % 1016,3 hPa 0,0 l/m 2 min 0 min 448 W/m 38,6 km/h (5 Bft) 97,83 %
20.02.2020 11:44 10,2 C 12,2 C 9,4 C 81 % 1016,3 hPa 0,0 l/m 2 min 0 min 417 W/m 38,6 km/h (5 Bft) 97,87 %
20.02.2020 11:46 10,2 C 11,7 C 9,4 C 80 % 1016,4 hPa 0,0 l/m 2 min 0 min 370 W/m 32,2 km/h (5 Bft) 97,87 %
20.02.2020 11:48 10,2 C 12,2 C 10,0 C 80 % 1016,4 hPa 0,0 l/m 2 min 0 min 381 W/m 25,7 km/h (4 Bft) 95,74 %
20.02.2020 11:50 10,2 C 11,1 C 10,0 C 80 % 1016,3 hPa 0,0 l/m 2 min 0 min 285 W/m 51,5 km/h (7 Bft) 97,87 %
20.02.2020 11:52 10,2 C 10,6 C 9,4 C 80 % 1016,3 hPa 0,0 l/m 2 min 0 min 233 W/m 45,1 km/h (6 Bft) 97,87 %
20.02.2020 11:54 10,2 C 10,0 C 9,4 C 80 % 1016,2 hPa 0,0 l/m 0 min 0 min 167 W/m 29,0 km/h (5 Bft) 86,96 %
20.02.2020 11:56 10,2 C 10,0 C 8,9 C 80 % 1016,2 hPa 0,0 l/m 0 min 0 min 158 W/m 32,2 km/h (5 Bft) 65,22 %
20.02.2020 11:58 10,1 C 9,4 C 8,9 C 79 % 1016,3 hPa 0,0 l/m 0 min 0 min 148 W/m 38,6 km/h (5 Bft) 97,87 %
20.02.2020 12:00 10,1 C 9,4 C 8,9 C 80 % 1016,2 hPa 0,0 l/m 0 min 0 min 148 W/m 29,0 km/h (5 Bft) 97,87 %
20.02.2020 12:02 10,0 C 9,4 C 9,4 C 80 % 1016,2 hPa 0,0 l/m 0 min 0 min 164 W/m 35,4 km/h (5 Bft) 97,87 %
20.02.2020 12:04 9,9 C 9,4 C 8,9 C 80 % 1016,2 hPa 0,0 l/m 0 min 0 min 143 W/m 19,3 km/h (3 Bft) 95,74 %
20.02.2020 12:08 9,8 C 8,9 C 8,9 C 80 % 1016,2 hPa 0,0 l/m 0 min 4 min 104 W/m 54,7 km/h (7 Bft) 98,92 %
20.02.2020 12:10 9,8 C 8,3 C 8,3 C 81 % 1016,2 hPa 0,0 l/m 0 min 2 min 157 W/m 41,8 km/h (6 Bft) 100,00 %
20.02.2020 12:12 9,7 C 8,9 C 8,3 C 81 % 1016,1 hPa 0,0 l/m 0 min 2 min 211 W/m 41,8 km/h (6 Bft) 100,00 %
20.02.2020 12:14 9,7 C 8,9 C 8,9 C 81 % 1016,1 hPa 0,0 l/m 0 min 2 min 219 W/m 25,7 km/h (4 Bft) 100,00 %
20.02.2020 12:16 9,7 C 9,4 C 8,9 C 82 % 1016,1 hPa 0,0 l/m 0 min 0 min 214 W/m 29,0 km/h (5 Bft) 100,00 %
20.02.2020 12:18 9,7 C 10,0 C 9,4 C 82 % 1016,1 hPa 0,0 l/m 2 min 0 min 240 W/m 12,9 km/h (3 Bft) 100,00 %
20.02.2020 12:20 9,7 C 10,6 C 9,4 C 82 % 1016,0 hPa 0,0 l/m 2 min 0 min 248 W/m 35,4 km/h (5 Bft) 95,74 %
20.02.2020 12:22 9,7 C 10,6 C 9,4 C 82 % 1015,9 hPa 0,0 l/m 2 min 0 min 248 W/m 35,4 km/h (5 Bft) 100,00 %
20.02.2020 12:24 9,8 C 10,6 C 9,4 C 82 % 1015,8 hPa 0,0 l/m 0 min 0 min 205 W/m 32,2 km/h (5 Bft) 97,87 %
20.02.2020 12:26 9,8 C 10,6 C 9,4 C 82 % 1015,7 hPa 0,0 l/m 0 min 0 min 218 W/m 25,7 km/h (4 Bft) 100,00 %
20.02.2020 12:28 9,8 C 11,1 C 10,0 C 82 % 1015,7 hPa 0,0 l/m 0 min 0 min 230 W/m 35,4 km/h (5 Bft) 97,83 %
20.02.2020 12:30 9,9 C 10,6 C 10,0 C 81 % 1015,7 hPa 0,0 l/m 0 min 0 min 206 W/m 22,5 km/h (4 Bft) 97,87 %
20.02.2020 12:32 9,9 C 10,6 C 10,6 C 81 % 1015,7 hPa 0,0 l/m 0 min 0 min 201 W/m 16,1 km/h (3 Bft) 100,00 %
20.02.2020 12:34 10,1 C 10,6 C 10,6 C 81 % 1015,6 hPa 0,0 l/m 0 min 0 min 155 W/m 29,0 km/h (5 Bft) 100,00 %
20.02.2020 12:36 10,1 C 10,6 C 10,6 C 81 % 1015,5 hPa 0,0 l/m 0 min 0 min 164 W/m 35,4 km/h (5 Bft) 97,87 %
20.02.2020 12:38 10,1 C 10,0 C 10,6 C 80 % 1015,4 hPa 0,0 l/m 0 min 0 min 167 W/m 35,4 km/h (5 Bft) 97,87 %
20.02.2020 12:40 10,2 C 10,0 C 10,0 C 79 % 1015,5 hPa 0,0 l/m 0 min 0 min 132 W/m 35,4 km/h (5 Bft) 97,83 %
20.02.2020 12:42 10,2 C 10,0 C 10,0 C 79 % 1015,4 hPa 0,0 l/m 0 min 0 min 142 W/m 41,8 km/h (6 Bft) 97,87 %
20.02.2020 12:44 10,2 C 10,0 C 10,0 C 79 % 1015,4 hPa 0,0 l/m 0 min 0 min 112 W/m 22,5 km/h (4 Bft) 97,87 %
20.02.2020 12:46 10,2 C 10,0 C 10,0 C 79 % 1015,3 hPa 0,0 l/m 0 min 0 min 61 W/m 29,0 km/h (5 Bft) 95,74 %
20.02.2020 12:48 10,2 C 9,4 C 9,4 C 79 % 1015,5 hPa 0,0 l/m 0 min 0 min 50 W/m 29,0 km/h (5 Bft) 97,87 %
20.02.2020 12:50 10,2 C 9,4 C 8,9 C 78 % 1015,4 hPa 0,0 l/m 0 min 0 min 54 W/m 41,8 km/h (6 Bft) 97,87 %
20.02.2020 12:52 10,1 C 9,4 C 8,9 C 79 % 1015,5 hPa 0,0 l/m 0 min 2 min 70 W/m 38,6 km/h (5 Bft) 97,83 %
20.02.2020 12:54 10,1 C 8,9 C 8,9 C 79 % 1015,4 hPa 0,0 l/m 0 min 0 min 81 W/m 41,8 km/h (6 Bft) 95,74 %
20.02.2020 12:56 10,1 C 8,3 C 8,9 C 80 % 1015,3 hPa 0,0 l/m 0 min 2 min 105 W/m 38,6 km/h (5 Bft) 95,74 %
20.02.2020 12:58 9,9 C 8,9 C 8,9 C 81 % 1015,3 hPa 0,0 l/m 0 min 2 min 125 W/m 45,1 km/h (6 Bft) 93,62 %
20.02.2020 13:00 9,9 C 9,4 C 9,4 C 82 % 1015,4 hPa 0,0 l/m 2 min 2 min 439 W/m 38,6 km/h (5 Bft) 93,62 %
20.02.2020 13:02 9,9 C 10,6 C 11,1 C 82 % 1015,3 hPa 0,0 l/m 2 min 2 min 333 W/m 51,5 km/h (7 Bft) 95,74 %
20.02.2020 13:04 9,9 C 12,8 C 12,8 C 83 % 1015,2 hPa 0,0 l/m 2 min 0 min 584 W/m 25,7 km/h (4 Bft) 95,65 %
20.02.2020 13:06 10,0 C 12,8 C 12,8 C 83 % 1015,2 hPa 0,0 l/m 2 min 0 min 543 W/m 38,6 km/h (5 Bft) 95,74 %
20.02.2020 13:08 10,1 C 13,9 C 13,3 C 83 % 1015,1 hPa 0,0 l/m 2 min 0 min 535 W/m 29,0 km/h (5 Bft) 93,62 %
20.02.2020 13:10 10,2 C 13,9 C 13,3 C 83 % 1015,1 hPa 0,0 l/m 2 min 0 min 532 W/m 32,2 km/h (5 Bft) 95,74 %
20.02.2020 13:12 10,3 C 13,3 C 13,3 C 83 % 1015,0 hPa 0,0 l/m 2 min 0 min 540 W/m 38,6 km/h (5 Bft) 95,74 %
20.02.2020 13:14 10,3 C 13,9 C 12,8 C 82 % 1015,0 hPa 0,0 l/m 2 min 0 min 551 W/m 38,6 km/h (5 Bft) 93,62 %
20.02.2020 13:16 10,4 C 13,9 C 12,2 C 82 % 1014,9 hPa 0,0 l/m 2 min 0 min 597 W/m 35,4 km/h (5 Bft) 95,65 %
20.02.2020 13:18 10,6 C 13,3 C 11,7 C 81 % 1014,9 hPa 0,0 l/m 2 min 0 min 555 W/m 35,4 km/h (5 Bft) 93,62 %
20.02.2020 13:20 10,6 C 12,2 C 10,6 C 80 % 1014,9 hPa 0,0 l/m 2 min 0 min 408 W/m 35,4 km/h (5 Bft) 95,74 %
20.02.2020 13:22 10,7 C 10,6 C 10,0 C 80 % 1014,8 hPa 0,0 l/m 0 min 0 min 139 W/m 35,4 km/h (5 Bft) 93,62 %
20.02.2020 13:24 10,6 C 10,6 C 10,0 C 79 % 1014,9 hPa 0,0 l/m 0 min 0 min 114 W/m 22,5 km/h (4 Bft) 95,74 %
20.02.2020 13:26 10,6 C 10,6 C 10,0 C 79 % 1014,9 hPa 0,0 l/m 0 min 0 min 163 W/m 45,1 km/h (6 Bft) 93,48 %
20.02.2020 13:28 10,6 C 10,6 C 10,0 C 78 % 1014,8 hPa 0,0 l/m 2 min 0 min 234 W/m 38,6 km/h (5 Bft) 95,74 %
20.02.2020 13:30 10,6 C 10,6 C 10,0 C 78 % 1014,8 hPa 0,0 l/m 0 min 0 min 213 W/m 38,6 km/h (5 Bft) 93,62 %
20.02.2020 13:32 10,5 C 10,6 C 10,0 C 78 % 1014,8 hPa 0,0 l/m 2 min 0 min 230 W/m 32,2 km/h (5 Bft) 93,62 %
20.02.2020 13:34 10,5 C 11,7 C 10,6 C 78 % 1014,8 hPa 0,0 l/m 2 min 0 min 235 W/m 61,2 km/h (7 Bft) 95,74 %
20.02.2020 13:36 10,6 C 12,2 C 10,6 C 78 % 1014,7 hPa 0,0 l/m 2 min 0 min 276 W/m 41,8 km/h (6 Bft) 95,74 %
20.02.2020 13:38 10,6 C 12,2 C 10,0 C 78 % 1014,7 hPa 0,0 l/m 2 min 0 min 276 W/m 48,3 km/h (6 Bft) 97,83 %
20.02.2020 13:40 10,6 C 11,7 C 10,0 C 77 % 1014,5 hPa 0,0 l/m 2 min 0 min 271 W/m 32,2 km/h (5 Bft) 97,87 %
20.02.2020 13:42 10,6 C 10,6 C 10,0 C 78 % 1014,5 hPa 0,0 l/m 0 min 0 min 145 W/m 19,3 km/h (3 Bft) 95,74 %
20.02.2020 13:44 10,6 C 10,6 C 10,0 C 78 % 1014,6 hPa 0,0 l/m 0 min 0 min 152 W/m 19,3 km/h (3 Bft) 100,00 %
20.02.2020 13:46 10,6 C 10,6 C 10,0 C 78 % 1014,5 hPa 0,0 l/m 0 min 0 min 92 W/m 25,7 km/h (4 Bft) 97,87 %
20.02.2020 13:48 10,6 C 10,6 C 10,0 C 78 % 1014,5 hPa 0,0 l/m 0 min 0 min 146 W/m 35,4 km/h (5 Bft) 100,00 %
20.02.2020 13:50 10,6 C 10,6 C 10,0 C 78 % 1014,4 hPa 0,0 l/m 0 min 0 min 168 W/m 22,5 km/h (4 Bft) 100,00 %
20.02.2020 13:52 10,6 C 10,6 C 10,0 C 77 % 1014,3 hPa 0,0 l/m 0 min 0 min 161 W/m 29,0 km/h (5 Bft) 100,00 %
20.02.2020 13:54 10,6 C 11,1 C 10,0 C 77 % 1014,2 hPa 0,0 l/m 0 min 0 min 213 W/m 25,7 km/h (4 Bft) 100,00 %
20.02.2020 13:56 10,6 C 12,8 C 10,6 C 78 % 1014,2 hPa 0,0 l/m 2 min 0 min 330 W/m 35,4 km/h (5 Bft) 100,00 %
20.02.2020 13:58 10,7 C 13,3 C 10,6 C 78 % 1014,2 hPa 0,0 l/m 2 min 0 min 306 W/m 25,7 km/h (4 Bft) 100,00 %
20.02.2020 14:00 10,7 C 12,2 C 10,6 C 78 % 1014,1 hPa 0,0 l/m 2 min 0 min 219 W/m 38,6 km/h (5 Bft) 100,00 %
20.02.2020 14:02 10,8 C 11,7 C 10,6 C 77 % 1014,2 hPa 0,0 l/m 0 min 0 min 173 W/m 29,0 km/h (5 Bft) 95,65 %
20.02.2020 14:04 10,8 C 12,2 C 10,6 C 78 % 1014,1 hPa 0,0 l/m 2 min 0 min 260 W/m 29,0 km/h (5 Bft) 100,00 %
20.02.2020 14:06 10,8 C 11,7 C 10,6 C 78 % 1014,1 hPa 0,0 l/m 2 min 0 min 262 W/m 45,1 km/h (6 Bft) 100,00 %
20.02.2020 14:08 10,8 C 11,1 C 10,6 C 77 % 1014,0 hPa 0,0 l/m 0 min 0 min 184 W/m 29,0 km/h (5 Bft) 100,00 %
20.02.2020 14:10 10,8 C 12,2 C 10,6 C 77 % 1014,0 hPa 0,0 l/m 0 min 0 min 186 W/m 29,0 km/h (5 Bft) 100,00 %
20.02.2020 14:12 10,8 C 11,7 C 10,6 C 77 % 1014,0 hPa 0,0 l/m 0 min 0 min 208 W/m 41,8 km/h (6 Bft) 97,83 %
20.02.2020 14:14 10,8 C 11,7 C 10,0 C 77 % 1014,0 hPa 0,0 l/m 2 min 0 min 222 W/m 32,2 km/h (5 Bft) 97,87 %
20.02.2020 14:16 10,8 C 11,1 C 10,0 C 77 % 1014,0 hPa 0,0 l/m 0 min 0 min 194 W/m 22,5 km/h (4 Bft) 97,87 %
20.02.2020 14:18 10,8 C 10,6 C 10,0 C 77 % 1013,9 hPa 0,0 l/m 0 min 0 min 195 W/m 35,4 km/h (5 Bft) 97,87 %
20.02.2020 14:20 10,8 C 10,6 C 10,0 C 77 % 1013,8 hPa 0,0 l/m 0 min 0 min 166 W/m 22,5 km/h (4 Bft) 97,87 %
20.02.2020 14:22 10,8 C 10,6 C 10,0 C 78 % 1013,7 hPa 0,0 l/m 0 min 0 min 117 W/m 38,6 km/h (5 Bft) 97,87 %
20.02.2020 14:24 10,8 C 10,0 C 10,0 C 77 % 1013,7 hPa 0,0 l/m 0 min 0 min 83 W/m 45,1 km/h (6 Bft) 97,83 %
20.02.2020 14:26 10,7 C 10,0 C 9,4 C 78 % 1013,7 hPa 0,0 l/m 0 min 0 min 115 W/m 29,0 km/h (5 Bft) 97,87 %
20.02.2020 14:28 10,7 C 10,0 C 9,4 C 78 % 1013,7 hPa 0,0 l/m 0 min 0 min 134 W/m 54,7 km/h (7 Bft) 95,74 %
20.02.2020 14:30 10,6 C 12,8 C 10,0 C 78 % 1013,8 hPa 0,0 l/m 0 min 0 min 151 W/m 32,2 km/h (5 Bft) 97,87 %
20.02.2020 14:32 10,7 C 12,8 C 10,0 C 79 % 1013,7 hPa 0,0 l/m 2 min 0 min 472 W/m 25,7 km/h (4 Bft) 97,87 %
20.02.2020 14:34 10,7 C 11,7 C 10,0 C 78 % 1013,7 hPa 0,0 l/m 2 min 0 min 469 W/m 35,4 km/h (5 Bft) 97,87 %
20.02.2020 14:36 10,7 C 11,1 C 10,0 C 78 % 1013,6 hPa 0,0 l/m 2 min 0 min 244 W/m 29,0 km/h (5 Bft) 97,83 %
20.02.2020 14:38 10,7 C 11,1 C 10,0 C 78 % 1013,5 hPa 0,0 l/m 0 min 0 min 162 W/m 22,5 km/h (4 Bft) 97,87 %
20.02.2020 14:40 10,7 C 10,6 C 10,0 C 78 % 1013,5 hPa 0,0 l/m 0 min 0 min 194 W/m 25,7 km/h (4 Bft) 97,87 %
20.02.2020 14:42 10,7 C 11,7 C 10,6 C 78 % 1013,4 hPa 0,0 l/m 2 min 0 min 217 W/m 48,3 km/h (6 Bft) 97,87 %
20.02.2020 14:44 10,7 C 11,1 C 10,0 C 78 % 1013,5 hPa 0,0 l/m 0 min 0 min 187 W/m 32,2 km/h (5 Bft) 95,74 %
20.02.2020 14:46 10,7 C 10,6 C 10,0 C 78 % 1013,5 hPa 0,0 l/m 0 min 0 min 110 W/m 38,6 km/h (5 Bft) 97,87 %
20.02.2020 14:48 10,7 C 10,0 C 10,0 C 77 % 1013,4 hPa 0,0 l/m 0 min 0 min 113 W/m 35,4 km/h (5 Bft) 97,83 %
20.02.2020 14:50 10,6 C 10,0 C 10,0 C 77 % 1013,4 hPa 0,0 l/m 0 min 0 min 99 W/m 35,4 km/h (5 Bft) 95,74 %
20.02.2020 14:52 10,6 C 10,0 C 9,4 C 77 % 1013,4 hPa 0,0 l/m 0 min 0 min 95 W/m 35,4 km/h (5 Bft) 97,87 %
20.02.2020 14:54 10,6 C 10,0 C 10,0 C 77 % 1013,4 hPa 0,0 l/m 0 min 0 min 160 W/m 41,8 km/h (6 Bft) 97,87 %
20.02.2020 14:56 10,6 C 10,0 C 10,0 C 78 % 1013,4 hPa 0,0 l/m 2 min 0 min 189 W/m 35,4 km/h (5 Bft) 93,62 %
20.02.2020 14:58 10,5 C 10,0 C 10,0 C 78 % 1013,4 hPa 0,0 l/m 0 min 0 min 140 W/m 29,0 km/h (5 Bft) 95,74 %
20.02.2020 15:00 10,5 C 10,0 C 9,4 C 78 % 1013,4 hPa 0,0 l/m 0 min 0 min 100 W/m 41,8 km/h (6 Bft) 97,83 %
20.02.2020 15:02 10,4 C 10,0 C 9,4 C 78 % 1013,3 hPa 0,0 l/m 0 min 0 min 86 W/m 38,6 km/h (5 Bft) 100,00 %
20.02.2020 15:04 10,4 C 9,4 C 9,4 C 78 % 1013,3 hPa 0,0 l/m 0 min 0 min 89 W/m 22,5 km/h (4 Bft) 100,00 %
20.02.2020 15:06 10,4 C 9,4 C 8,9 C 79 % 1013,4 hPa 0,0 l/m 0 min 2 min 66 W/m 25,7 km/h (4 Bft) 100,00 %
20.02.2020 15:08 10,3 C 9,4 C 8,9 C 79 % 1013,3 hPa 0,0 l/m 0 min 0 min 62 W/m 32,2 km/h (5 Bft) 100,00 %
20.02.2020 15:10 10,3 C 9,4 C 9,4 C 79 % 1013,2 hPa 0,0 l/m 0 min 0 min 79 W/m 32,2 km/h (5 Bft) 100,00 %
20.02.2020 15:12 10,3 C 9,4 C 9,4 C 79 % 1013,3 hPa 0,0 l/m 0 min 0 min 92 W/m 38,6 km/h (5 Bft) 100,00 %
20.02.2020 15:14 10,2 C 9,4 C 9,4 C 79 % 1013,2 hPa 0,0 l/m 0 min 0 min 105 W/m 45,1 km/h (6 Bft) 97,87 %
20.02.2020 15:16 10,2 C 9,4 C 9,4 C 79 % 1013,2 hPa 0,0 l/m 0 min 0 min 101 W/m 29,0 km/h (5 Bft) 97,87 %
20.02.2020 15:18 10,2 C 9,4 C 9,4 C 79 % 1013,3 hPa 0,0 l/m 0 min 0 min 94 W/m 41,8 km/h (6 Bft) 100,00 %
20.02.2020 15:20 10,2 C 9,4 C 9,4 C 79 % 1013,2 hPa 0,0 l/m 0 min 0 min 93 W/m 35,4 km/h (5 Bft) 100,00 %
20.02.2020 15:22 10,2 C 9,4 C 9,4 C 79 % 1013,2 hPa 0,0 l/m 0 min 0 min 92 W/m 48,3 km/h (6 Bft) 100,00 %
20.02.2020 15:24 10,1 C 9,4 C 9,4 C 79 % 1013,2 hPa 0,0 l/m 0 min 0 min 76 W/m 29,0 km/h (5 Bft) 100,00 %
20.02.2020 15:26 10,1 C 9,4 C 9,4 C 79 % 1013,2 hPa 0,0 l/m 0 min 0 min 50 W/m 38,6 km/h (5 Bft) 97,87 %
20.02.2020 15:28 10,1 C 9,4 C 9,4 C 79 % 1013,2 hPa 0,0 l/m 0 min 0 min 59 W/m 29,0 km/h (5 Bft) 97,87 %
20.02.2020 15:30 10,1 C 9,4 C 9,4 C 79 % 1013,2 hPa 0,0 l/m 0 min 0 min 55 W/m 32,2 km/h (5 Bft) 91,49 %
20.02.2020 15:32 10,1 C 9,4 C 8,9 C 79 % 1013,3 hPa 0,0 l/m 0 min 0 min 50 W/m 22,5 km/h (4 Bft) 97,87 %
20.02.2020 15:34 10,1 C 9,4 C 8,9 C 79 % 1013,1 hPa 0,0 l/m 0 min 0 min 51 W/m 51,5 km/h (7 Bft) 97,83 %
20.02.2020 15:36 10,1 C 9,4 C 8,9 C 79 % 1013,1 hPa 0,0 l/m 0 min 0 min 46 W/m 32,2 km/h (5 Bft) 95,74 %
20.02.2020 15:38 10,1 C 9,4 C 8,9 C 79 % 1013,0 hPa 0,0 l/m 0 min 0 min 50 W/m 38,6 km/h (5 Bft) 97,87 %
20.02.2020 15:40 10,1 C 9,4 C 8,9 C 79 % 1013,0 hPa 0,0 l/m 0 min 0 min 56 W/m 29,0 km/h (5 Bft) 97,87 %
20.02.2020 15:42 10,1 C 9,4 C 8,9 C 79 % 1013,0 hPa 0,0 l/m 0 min 0 min 63 W/m 29,0 km/h (5 Bft) 97,87 %
20.02.2020 15:44 10,1 C 9,4 C 9,4 C 79 % 1012,9 hPa 0,0 l/m 0 min 0 min 59 W/m 22,5 km/h (4 Bft) 95,74 %
20.02.2020 15:46 10,1 C 9,4 C 8,9 C 79 % 1012,9 hPa 0,0 l/m 0 min 0 min 48 W/m 29,0 km/h (5 Bft) 97,83 %
20.02.2020 15:48 10,1 C 9,4 C 8,9 C 79 % 1012,9 hPa 0,0 l/m 0 min 0 min 46 W/m 32,2 km/h (5 Bft) 97,87 %
20.02.2020 15:50 10,1 C 9,4 C 8,9 C 79 % 1012,8 hPa 0,0 l/m 0 min 0 min 41 W/m 25,7 km/h (4 Bft) 95,74 %
20.02.2020 15:52 10,1 C 9,4 C 8,9 C 79 % 1012,8 hPa 0,0 l/m 0 min 0 min 38 W/m 38,6 km/h (5 Bft) 95,74 %
20.02.2020 15:54 10,1 C 9,4 C 8,9 C 79 % 1012,7 hPa 0,0 l/m 0 min 0 min 38 W/m 29,0 km/h (5 Bft) 97,87 %
20.02.2020 15:56 10,1 C 9,4 C 8,9 C 79 % 1012,8 hPa 0,0 l/m 0 min 0 min 36 W/m 35,4 km/h (5 Bft) 95,74 %
20.02.2020 15:58 10,1 C 9,4 C 8,9 C 79 % 1012,7 hPa 0,0 l/m 0 min 0 min 39 W/m 35,4 km/h (5 Bft) 97,83 %
20.02.2020 16:00 10,1 C 9,4 C 8,9 C 79 % 1012,8 hPa 0,0 l/m 0 min 0 min 44 W/m 45,1 km/h (6 Bft) 93,62 %
20.02.2020 16:02 10,1 C 9,4 C 8,9 C 79 % 1012,8 hPa 0,0 l/m 0 min 0 min 35 W/m 29,0 km/h (5 Bft) 93,62 %
20.02.2020 16:04 10,0 C 9,4 C 8,9 C 79 % 1012,8 hPa 0,0 l/m 0 min 0 min 34 W/m 19,3 km/h (3 Bft) 93,62 %
20.02.2020 16:06 10,0 C 9,4 C 8,9 C 79 % 1012,7 hPa 0,0 l/m 0 min 0 min 36 W/m 25,7 km/h (4 Bft) 95,74 %
20.02.2020 16:08 10,0 C 9,4 C 8,9 C 79 % 1012,8 hPa 0,0 l/m 0 min 0 min 34 W/m 38,6 km/h (5 Bft) 95,74 %
20.02.2020 16:10 10,0 C 9,4 C 8,9 C 79 % 1012,7 hPa 0,0 l/m 0 min 0 min 32 W/m 22,5 km/h (4 Bft) 91,30 %
20.02.2020 16:12 10,0 C 9,4 C 8,9 C 79 % 1012,7 hPa 0,0 l/m 0 min 0 min 33 W/m 45,1 km/h (6 Bft) 95,74 %
20.02.2020 16:14 9,9 C 9,4 C 8,9 C 78 % 1012,6 hPa 0,0 l/m 0 min 0 min 33 W/m 48,3 km/h (6 Bft) 97,87 %
20.02.2020 16:16 9,9 C 9,4 C 8,9 C 79 % 1012,6 hPa 0,0 l/m 0 min 0 min 37 W/m 25,7 km/h (4 Bft) 93,62 %
20.02.2020 16:18 9,9 C 9,4 C 8,9 C 79 % 1012,4 hPa 0,0 l/m 0 min 0 min 39 W/m 29,0 km/h (5 Bft) 95,74 %
20.02.2020 16:20 9,9 C 9,4 C 8,9 C 79 % 1012,4 hPa 0,0 l/m 0 min 0 min 37 W/m 25,7 km/h (4 Bft) 95,74 %
20.02.2020 16:22 9,9 C 9,4 C 8,9 C 79 % 1012,4 hPa 0,0 l/m 0 min 0 min 39 W/m 22,5 km/h (4 Bft) 95,65 %
20.02.2020 16:24 9,9 C 9,4 C 8,9 C 79 % 1012,4 hPa 0,0 l/m 0 min 0 min 36 W/m 29,0 km/h (5 Bft) 95,74 %
20.02.2020 16:26 9,9 C 9,4 C 8,9 C 79 % 1012,3 hPa 0,0 l/m 0 min 0 min 32 W/m 29,0 km/h (5 Bft) 97,87 %
20.02.2020 16:28 9,9 C 9,4 C 8,9 C 78 % 1012,4 hPa 0,0 l/m 0 min 0 min 32 W/m 25,7 km/h (4 Bft) 97,87 %
20.02.2020 16:30 9,9 C 9,4 C 8,9 C 78 % 1012,3 hPa 0,0 l/m 0 min 0 min 28 W/m 41,8 km/h (6 Bft) 97,87 %
20.02.2020 16:32 9,9 C 9,4 C 8,9 C 78 % 1012,2 hPa 0,0 l/m 0 min 0 min 32 W/m 35,4 km/h (5 Bft) 95,65 %
20.02.2020 16:34 9,9 C 9,4 C 8,9 C 78 % 1012,2 hPa 0,0 l/m 0 min 0 min 28 W/m 32,2 km/h (5 Bft) 97,87 %
20.02.2020 16:36 9,9 C 9,4 C 8,9 C 78 % 1012,2 hPa 0,0 l/m 0 min 0 min 28 W/m 35,4 km/h (5 Bft) 97,87 %
20.02.2020 16:38 9,9 C 9,4 C 8,9 C 78 % 1012,2 hPa 0,0 l/m 0 min 0 min 27 W/m 41,8 km/h (6 Bft) 78,72 %
20.02.2020 16:40 9,9 C 9,4 C 8,9 C 78 % 1012,2 hPa 0,0 l/m 0 min 0 min 24 W/m 25,7 km/h (4 Bft) 69,05 %
20.02.2020 16:42 9,9 C 9,4 C 8,9 C 78 % 1012,2 hPa 0,0 l/m 0 min 0 min 23 W/m 29,0 km/h (5 Bft) 97,87 %
20.02.2020 16:44 9,9 C 9,4 C 8,9 C 78 % 1012,2 hPa 0,0 l/m 0 min 0 min 22 W/m 41,8 km/h (6 Bft) 97,83 %
20.02.2020 16:46 9,9 C 9,4 C 8,9 C 78 % 1012,1 hPa 0,0 l/m 0 min 0 min 19 W/m 25,7 km/h (4 Bft) 95,74 %
20.02.2020 16:48 9,9 C 9,4 C 8,9 C 78 % 1012,1 hPa 0,0 l/m 0 min 0 min 19 W/m 25,7 km/h (4 Bft) 97,87 %
20.02.2020 16:50 9,9 C 9,4 C 8,9 C 78 % 1012,1 hPa 0,0 l/m 0 min 0 min 19 W/m 25,7 km/h (4 Bft) 97,87 %
20.02.2020 16:52 9,9 C 9,4 C 8,9 C 78 % 1011,9 hPa 0,0 l/m 0 min 0 min 21 W/m 35,4 km/h (5 Bft) 97,87 %
20.02.2020 16:54 9,9 C 9,4 C 8,9 C 78 % 1011,9 hPa 0,0 l/m 0 min 0 min 19 W/m 35,4 km/h (5 Bft) 97,87 %
20.02.2020 16:56 9,9 C 9,4 C 8,9 C 78 % 1011,9 hPa 0,0 l/m 0 min 0 min 18 W/m 38,6 km/h (5 Bft) 100,00 %
20.02.2020 16:58 9,9 C 9,4 C 8,9 C 78 % 1011,8 hPa 0,0 l/m 0 min 0 min 16 W/m 35,4 km/h (5 Bft) 100,00 %
20.02.2020 17:00 9,9 C 9,4 C 8,9 C 78 % 1011,9 hPa 0,0 l/m 0 min 0 min 17 W/m 41,8 km/h (6 Bft) 100,00 %
20.02.2020 17:02 9,9 C 9,4 C 8,9 C 78 % 1011,8 hPa 0,0 l/m 0 min 0 min 16 W/m 38,6 km/h (5 Bft) 100,00 %
20.02.2020 17:04 9,9 C 9,4 C 8,9 C 78 % 1011,8 hPa 0,0 l/m 0 min 0 min 12 W/m 25,7 km/h (4 Bft) 100,00 %
20.02.2020 17:06 9,9 C 9,4 C 8,9 C 78 % 1011,8 hPa 0,0 l/m 0 min 0 min 11 W/m 35,4 km/h (5 Bft) 100,00 %
20.02.2020 17:08 9,9 C 9,4 C 8,9 C 78 % 1011,7 hPa 0,0 l/m 0 min 0 min 12 W/m 38,6 km/h (5 Bft) 100,00 %
20.02.2020 17:10 9,8 C 9,4 C 8,9 C 78 % 1011,6 hPa 0,0 l/m 0 min 0 min 15 W/m 22,5 km/h (4 Bft) 100,00 %
20.02.2020 17:12 9,8 C 9,4 C 8,9 C 78 % 1011,5 hPa 0,0 l/m 0 min 0 min 19 W/m 22,5 km/h (4 Bft) 97,87 %
20.02.2020 17:14 9,8 C 9,4 C 8,9 C 78 % 1011,6 hPa 0,0 l/m 0 min 0 min 22 W/m 35,4 km/h (5 Bft) 100,00 %
20.02.2020 17:16 9,8 C 9,4 C 8,9 C 78 % 1011,5 hPa 0,0 l/m 0 min 0 min 23 W/m 22,5 km/h (4 Bft) 97,87 %
20.02.2020 17:18 9,8 C 9,4 C 8,9 C 78 % 1011,4 hPa 0,0 l/m 0 min 0 min 19 W/m 32,2 km/h (5 Bft) 97,87 %
20.02.2020 17:20 9,8 C 9,4 C 8,9 C 78 % 1011,5 hPa 0,0 l/m 0 min 0 min 16 W/m 29,0 km/h (5 Bft) 100,00 %
20.02.2020 17:22 9,8 C 9,4 C 8,9 C 78 % 1011,4 hPa 0,0 l/m 0 min 0 min 12 W/m 35,4 km/h (5 Bft) 97,87 %
20.02.2020 17:24 9,8 C 9,4 C 8,9 C 78 % 1011,4 hPa 0,0 l/m 0 min 0 min 12 W/m 35,4 km/h (5 Bft) 100,00 %
20.02.2020 17:26 9,8 C 9,4 C 8,9 C 78 % 1011,3 hPa 0,0 l/m 0 min 0 min 14 W/m 35,4 km/h (5 Bft) 97,87 %
20.02.2020 17:28 9,8 C 9,4 C 8,9 C 78 % 1011,3 hPa 0,0 l/m 0 min 0 min 14 W/m 35,4 km/h (5 Bft) 100,00 %
20.02.2020 17:30 9,9 C 9,4 C 8,9 C 78 % 1011,3 hPa 0,0 l/m 0 min 0 min 18 W/m 25,7 km/h (4 Bft) 100,00 %
20.02.2020 17:32 9,8 C 9,4 C 8,9 C 78 % 1011,2 hPa 0,0 l/m 0 min 0 min 21 W/m 32,2 km/h (5 Bft) 100,00 %
20.02.2020 17:34 9,9 C 9,4 C 8,9 C 78 % 1011,3 hPa 0,0 l/m 0 min 0 min 15 W/m 35,4 km/h (5 Bft) 100,00 %
20.02.2020 17:36 9,8 C 9,4 C 8,9 C 78 % 1011,1 hPa 0,0 l/m 0 min 0 min 12 W/m 35,4 km/h (5 Bft) 91,49 %
20.02.2020 17:38 9,9 C 9,4 C 8,9 C 78 % 1011,0 hPa 0,0 l/m 0 min 0 min 9 W/m 35,4 km/h (5 Bft) 97,87 %
20.02.2020 17:40 9,9 C 9,4 C 8,9 C 78 % 1011,0 hPa 0,0 l/m 0 min 0 min 6 W/m 45,1 km/h (6 Bft) 100,00 %
20.02.2020 17:42 9,9 C 9,4 C 8,9 C 78 % 1010,9 hPa 0,0 l/m 0 min 0 min 7 W/m 38,6 km/h (5 Bft) 97,83 %
20.02.2020 17:44 9,9 C 9,4 C 8,9 C 78 % 1010,9 hPa 0,0 l/m 0 min 0 min 6 W/m 48,3 km/h (6 Bft) 97,87 %
20.02.2020 17:46 9,9 C 9,4 C 8,9 C 78 % 1010,8 hPa 0,0 l/m 0 min 0 min 5 W/m 35,4 km/h (5 Bft) 97,87 %
20.02.2020 17:48 9,9 C 9,4 C 8,9 C 78 % 1010,8 hPa 0,0 l/m 0 min 0 min 5 W/m 38,6 km/h (5 Bft) 97,87 %
20.02.2020 17:50 9,9 C 9,4 C 8,9 C 78 % 1010,7 hPa 0,0 l/m 0 min 0 min 1 W/m 38,6 km/h (5 Bft) 97,87 %
20.02.2020 17:52 9,9 C 9,4 C 8,9 C 78 % 1010,7 hPa 0,0 l/m 0 min 0 min 0 W/m 41,8 km/h (6 Bft) 97,87 %
20.02.2020 17:54 9,9 C 9,4 C 8,9 C 78 % 1010,7 hPa 0,0 l/m 0 min 0 min 0 W/m 32,2 km/h (5 Bft) 95,65 %
20.02.2020 17:56 9,9 C 9,4 C 8,9 C 78 % 1010,7 hPa 0,0 l/m 0 min 0 min 0 W/m 29,0 km/h (5 Bft) 95,74 %
20.02.2020 17:58 9,9 C 9,4 C 8,9 C 77 % 1010,6 hPa 0,0 l/m 0 min 0 min 0 W/m 41,8 km/h (6 Bft) 97,87 %
20.02.2020 18:00 10,0 C 9,4 C 8,9 C 77 % 1010,6 hPa 0,0 l/m 0 min 0 min 0 W/m 38,6 km/h (5 Bft) 97,87 %
20.02.2020 18:02 10,0 C 9,4 C 8,9 C 77 % 1010,5 hPa 0,0 l/m 0 min 0 min 0 W/m 32,2 km/h (5 Bft) 97,92 %
20.02.2020 18:04 10,0 C 9,4 C 8,9 C 77 % 1010,5 hPa 0,0 l/m 0 min 0 min 0 W/m 35,4 km/h (5 Bft) 97,83 %
20.02.2020 18:08 10,1 C 9,4 C 8,9 C 77 % 1010,5 hPa 0,0 l/m 0 min 0 min 0 W/m 41,8 km/h (6 Bft) 97,87 %
20.02.2020 18:10 10,1 C 9,4 C 8,9 C 77 % 1010,4 hPa 0,0 l/m 0 min 0 min 0 W/m 38,6 km/h (5 Bft) 97,87 %
20.02.2020 18:12 10,1 C 9,4 C 8,9 C 77 % 1010,4 hPa 0,0 l/m 0 min 0 min 0 W/m 45,1 km/h (6 Bft) 95,74 %
20.02.2020 18:14 10,1 C 9,4 C 8,9 C 77 % 1010,4 hPa 0,0 l/m 0 min 0 min 0 W/m 41,8 km/h (6 Bft) 95,74 %
20.02.2020 18:16 10,1 C 9,4 C 8,9 C 77 % 1010,4 hPa 0,0 l/m 0 min 0 min 0 W/m 41,8 km/h (6 Bft) 93,48 %
20.02.2020 18:18 10,1 C 9,4 C 8,9 C 77 % 1010,4 hPa 0,0 l/m 0 min 0 min 0 W/m 32,2 km/h (5 Bft) 95,74 %
20.02.2020 18:20 10,1 C 9,4 C 8,9 C 77 % 1010,4 hPa 0,0 l/m 0 min 0 min 0 W/m 41,8 km/h (6 Bft) 93,62 %
20.02.2020 18:22 10,1 C 9,4 C 8,9 C 77 % 1010,4 hPa 0,0 l/m 0 min 0 min 0 W/m 41,8 km/h (6 Bft) 95,74 %
20.02.2020 18:24 10,1 C 9,4 C 8,9 C 77 % 1010,4 hPa 0,0 l/m 0 min 0 min 0 W/m 38,6 km/h (5 Bft) 95,74 %
20.02.2020 18:26 10,1 C 9,4 C 8,9 C 77 % 1010,4 hPa 0,0 l/m 0 min 0 min 0 W/m 32,2 km/h (5 Bft) 95,65 %
20.02.2020 18:28 10,1 C 9,4 C 8,9 C 77 % 1010,3 hPa 0,0 l/m 0 min 0 min 0 W/m 41,8 km/h (6 Bft) 97,87 %
20.02.2020 18:30 10,1 C 9,4 C 8,9 C 77 % 1010,3 hPa 0,0 l/m 0 min 0 min 0 W/m 32,2 km/h (5 Bft) 95,74 %
20.02.2020 18:32 10,1 C 9,4 C 8,9 C 77 % 1010,3 hPa 0,0 l/m 0 min 0 min 0 W/m 51,5 km/h (7 Bft) 95,74 %
20.02.2020 18:34 10,1 C 9,4 C 8,9 C 78 % 1010,2 hPa 0,0 l/m 0 min 0 min 0 W/m 38,6 km/h (5 Bft) 97,87 %
20.02.2020 18:36 10,1 C 9,4 C 8,9 C 78 % 1010,2 hPa 0,0 l/m 0 min 0 min 0 W/m 41,8 km/h (6 Bft) 97,87 %
20.02.2020 18:38 10,1 C 9,4 C 8,9 C 78 % 1010,3 hPa 0,0 l/m 0 min 0 min 0 W/m 38,6 km/h (5 Bft) 93,62 %
20.02.2020 18:40 10,1 C 9,4 C 8,9 C 78 % 1010,3 hPa 0,0 l/m 0 min 0 min 0 W/m 38,6 km/h (5 Bft) 97,83 %
20.02.2020 18:42 10,1 C 9,4 C 8,9 C 78 % 1010,2 hPa 0,0 l/m 0 min 0 min 0 W/m 29,0 km/h (5 Bft) 97,87 %
20.02.2020 18:44 10,1 C 9,4 C 8,9 C 78 % 1010,2 hPa 0,0 l/m 0 min 0 min 0 W/m 25,7 km/h (4 Bft) 97,87 %
20.02.2020 18:46 10,1 C 9,4 C 8,9 C 79 % 1010,2 hPa 0,0 l/m 0 min 0 min 0 W/m 22,5 km/h (4 Bft) 97,87 %
20.02.2020 18:48 10,1 C 9,4 C 8,9 C 79 % 1010,1 hPa 0,0 l/m 0 min 0 min 0 W/m 48,3 km/h (6 Bft) 95,74 %
20.02.2020 18:50 10,1 C 9,4 C 8,9 C 79 % 1010,2 hPa 0,0 l/m 0 min 0 min 0 W/m 54,7 km/h (7 Bft) 97,83 %
20.02.2020 18:52 10,1 C 8,9 C 8,9 C 79 % 1010,1 hPa 0,0 l/m 0 min 0 min 0 W/m 29,0 km/h (5 Bft) 95,74 %
20.02.2020 18:54 10,1 C 8,9 C 8,9 C 79 % 1010,1 hPa 0,0 l/m 0 min 0 min 0 W/m 35,4 km/h (5 Bft) 95,74 %
20.02.2020 18:56 10,1 C 8,9 C 8,3 C 79 % 1010,1 hPa 0,0 l/m 0 min 0 min 0 W/m 35,4 km/h (5 Bft) 97,87 %
20.02.2020 18:58 10,1 C 8,9 C 8,3 C 79 % 1010,1 hPa 0,0 l/m 0 min 0 min 0 W/m 32,2 km/h (5 Bft) 97,87 %
20.02.2020 19:00 10,1 C 8,3 C 7,8 C 80 % 1010,0 hPa 0,0 l/m 0 min 2 min 0 W/m 41,8 km/h (6 Bft) 93,62 %
20.02.2020 19:02 10,1 C 8,3 C 7,8 C 81 % 1010,0 hPa 0,0 l/m 0 min 2 min 0 W/m 45,1 km/h (6 Bft) 97,83 %
20.02.2020 19:04 10,1 C 7,8 C 7,8 C 81 % 1010,1 hPa 0,0 l/m 0 min 2 min 0 W/m 45,1 km/h (6 Bft) 97,87 %
20.02.2020 19:06 9,9 C 7,8 C 7,2 C 82 % 1010,0 hPa 0,0 l/m 0 min 2 min 0 W/m 61,2 km/h (7 Bft) 97,87 %
20.02.2020 19:08 9,9 C 7,2 C 7,2 C 82 % 1010,0 hPa 0,0 l/m 0 min 2 min 0 W/m 57,9 km/h (7 Bft) 97,87 %
20.02.2020 19:10 9,8 C 7,2 C 7,2 C 83 % 1010,0 hPa 0,0 l/m 0 min 2 min 0 W/m 41,8 km/h (6 Bft) 95,74 %
20.02.2020 19:12 9,7 C 7,2 C 6,7 C 83 % 1010,0 hPa 0,0 l/m 0 min 2 min 0 W/m 41,8 km/h (6 Bft) 97,87 %
20.02.2020 19:14 9,7 C 7,2 C 6,7 C 84 % 1010,0 hPa 0,0 l/m 0 min 2 min 0 W/m 54,7 km/h (7 Bft) 95,74 %
20.02.2020 19:16 9,6 C 7,2 C 6,7 C 84 % 1009,8 hPa 0,0 l/m 0 min 2 min 0 W/m 38,6 km/h (5 Bft) 95,65 %
20.02.2020 19:18 9,6 C 6,7 C 6,7 C 85 % 1009,9 hPa 0,0 l/m 0 min 2 min 0 W/m 48,3 km/h (6 Bft) 95,74 %
20.02.2020 19:20 9,5 C 6,7 C 6,7 C 85 % 1009,8 hPa 0,0 l/m 0 min 2 min 0 W/m 45,1 km/h (6 Bft) 95,74 %
20.02.2020 19:22 9,4 C 6,7 C 6,7 C 85 % 1009,8 hPa 0,0 l/m 0 min 2 min 0 W/m 38,6 km/h (5 Bft) 97,87 %
20.02.2020 19:24 9,4 C 6,7 C 6,7 C 86 % 1009,8 hPa 0,0 l/m 0 min 2 min 0 W/m 35,4 km/h (5 Bft) 97,87 %
20.02.2020 19:26 9,3 C 7,2 C 6,7 C 86 % 1009,8 hPa 0,2 l/m 0 min 2 min 0 W/m 38,6 km/h (5 Bft) 97,83 %
20.02.2020 19:28 9,3 C 7,2 C 6,7 C 86 % 1009,8 hPa 0,0 l/m 0 min 2 min 0 W/m 41,8 km/h (6 Bft) 97,87 %
20.02.2020 19:30 9,3 C 7,2 C 6,7 C 86 % 1009,7 hPa 0,0 l/m 0 min 2 min 0 W/m 41,8 km/h (6 Bft) 97,87 %
20.02.2020 19:32 9,2 C 6,7 C 6,7 C 87 % 1009,7 hPa 0,0 l/m 0 min 2 min 0 W/m 51,5 km/h (7 Bft) 95,74 %
20.02.2020 19:34 9,2 C 6,7 C 6,7 C 87 % 1009,7 hPa 0,0 l/m 0 min 2 min 0 W/m 38,6 km/h (5 Bft) 97,87 %
20.02.2020 19:36 9,2 C 6,7 C 6,7 C 87 % 1009,8 hPa 0,0 l/m 0 min 2 min 0 W/m 35,4 km/h (5 Bft) 97,87 %
20.02.2020 19:38 9,1 C 6,7 C 6,7 C 87 % 1009,8 hPa 0,0 l/m 0 min 2 min 0 W/m 41,8 km/h (6 Bft) 97,83 %
20.02.2020 19:40 9,1 C 6,7 C 6,7 C 88 % 1009,6 hPa 0,0 l/m 0 min 2 min 0 W/m 51,5 km/h (7 Bft) 97,87 %
20.02.2020 19:42 9,1 C 6,7 C 6,7 C 88 % 1009,6 hPa 0,0 l/m 0 min 2 min 0 W/m 48,3 km/h (6 Bft) 100,00 %
20.02.2020 19:44 9,0 C 6,7 C 6,7 C 88 % 1009,5 hPa 0,2 l/m 0 min 2 min 0 W/m 41,8 km/h (6 Bft) 100,00 %
20.02.2020 19:46 9,0 C 6,7 C 6,7 C 88 % 1009,7 hPa 0,0 l/m 0 min 2 min 0 W/m 48,3 km/h (6 Bft) 100,00 %
20.02.2020 19:48 8,9 C 6,7 C 6,7 C 89 % 1009,5 hPa 0,0 l/m 0 min 2 min 0 W/m 29,0 km/h (5 Bft) 100,00 %
20.02.2020 19:49 8,9 C 6,7 C 6,7 C 89 % 1009,5 hPa 0,0 l/m 0 min 1 min 0 W/m 48,3 km/h (6 Bft) 100,00 %
20.02.2020 19:52 8,9 C 6,7 C 6,7 C 89 % 1009,6 hPa 0,0 l/m 0 min 3 min 0 W/m 38,6 km/h (5 Bft) 100,00 %
20.02.2020 19:54 8,8 C 6,7 C 6,7 C 89 % 1009,5 hPa 0,0 l/m 0 min 2 min 0 W/m 29,0 km/h (5 Bft) 100,00 %
20.02.2020 19:56 8,8 C 6,7 C 6,7 C 89 % 1009,4 hPa 0,0 l/m 0 min 2 min 0 W/m 51,5 km/h (7 Bft) 100,00 %
20.02.2020 19:58 8,8 C 6,7 C 6,7 C 90 % 1009,5 hPa 0,0 l/m 0 min 2 min 0 W/m 45,1 km/h (6 Bft) 97,87 %
20.02.2020 20:00 8,8 C 6,7 C 6,7 C 90 % 1009,4 hPa 0,0 l/m 0 min 2 min 0 W/m 32,2 km/h (5 Bft) 100,00 %
20.02.2020 20:02 8,8 C 6,7 C 6,1 C 90 % 1009,5 hPa 0,2 l/m 0 min 2 min 0 W/m 29,0 km/h (5 Bft) 100,00 %
20.02.2020 20:04 8,8 C 6,7 C 6,1 C 90 % 1009,5 hPa 0,0 l/m 0 min 2 min 0 W/m 32,2 km/h (5 Bft) 100,00 %
20.02.2020 20:06 8,7 C 6,7 C 6,1 C 90 % 1009,5 hPa 0,0 l/m 0 min 2 min 0 W/m 45,1 km/h (6 Bft) 100,00 %
20.02.2020 20:08 8,7 C 6,7 C 6,1 C 91 % 1009,4 hPa 0,2 l/m 0 min 2 min 0 W/m 29,0 km/h (5 Bft) 100,00 %
20.02.2020 20:10 8,7 C 6,7 C 6,1 C 91 % 1009,4 hPa 0,0 l/m 0 min 2 min 0 W/m 38,6 km/h (5 Bft) 100,00 %
20.02.2020 20:12 8,7 C 6,7 C 6,1 C 91 % 1009,4 hPa 0,0 l/m 0 min 2 min 0 W/m 32,2 km/h (5 Bft) 100,00 %
20.02.2020 20:14 8,7 C 6,7 C 6,1 C 91 % 1009,5 hPa 0,0 l/m 0 min 2 min 0 W/m 29,0 km/h (5 Bft) 100,00 %
20.02.2020 20:16 8,6 C 6,7 C 6,1 C 91 % 1009,4 hPa 0,0 l/m 0 min 2 min 0 W/m 35,4 km/h (5 Bft) 100,00 %
20.02.2020 20:18 8,6 C 6,7 C 6,1 C 91 % 1009,4 hPa 0,2 l/m 0 min 2 min 0 W/m 25,7 km/h (4 Bft) 97,87 %
20.02.2020 20:20 8,6 C 6,7 C 6,1 C 92 % 1009,4 hPa 0,0 l/m 0 min 2 min 0 W/m 25,7 km/h (4 Bft) 100,00 %
20.02.2020 20:22 8,6 C 6,7 C 6,1 C 92 % 1009,5 hPa 0,2 l/m 0 min 2 min 0 W/m 38,6 km/h (5 Bft) 100,00 %
20.02.2020 20:24 8,6 C 6,7 C 6,1 C 92 % 1009,4 hPa 0,0 l/m 0 min 2 min 0 W/m 38,6 km/h (5 Bft) 100,00 %
20.02.2020 20:26 8,5 C 6,7 C 6,1 C 92 % 1009,3 hPa 0,0 l/m 0 min 2 min 0 W/m 29,0 km/h (5 Bft) 100,00 %
20.02.2020 20:28 8,5 C 6,7 C 6,1 C 92 % 1009,4 hPa 0,2 l/m 0 min 2 min 0 W/m 45,1 km/h (6 Bft) 100,00 %
20.02.2020 20:30 8,5 C 6,7 C 6,1 C 93 % 1009,3 hPa 0,0 l/m 0 min 2 min 0 W/m 32,2 km/h (5 Bft) 100,00 %
20.02.2020 20:32 8,5 C 6,7 C 6,1 C 93 % 1009,5 hPa 0,2 l/m 0 min 2 min 0 W/m 25,7 km/h (4 Bft) 100,00 %
20.02.2020 20:34 8,4 C 6,7 C 6,1 C 93 % 1009,4 hPa 0,0 l/m 0 min 2 min 0 W/m 29,0 km/h (5 Bft) 100,00 %
20.02.2020 20:36 8,4 C 6,7 C 6,1 C 93 % 1009,3 hPa 0,2 l/m 0 min 2 min 0 W/m 25,7 km/h (4 Bft) 100,00 %
20.02.2020 20:38 8,4 C 6,7 C 6,7 C 93 % 1009,8 hPa 0,2 l/m 0 min 2 min 0 W/m 35,4 km/h (5 Bft) 100,00 %
20.02.2020 20:40 8,4 C 6,7 C 6,7 C 93 % 1009,7 hPa 0,4 l/m 0 min 2 min 0 W/m 38,6 km/h (5 Bft) 100,00 %
20.02.2020 20:42 8,4 C 6,7 C 6,1 C 93 % 1010,0 hPa 0,0 l/m 0 min 2 min 0 W/m 67,6 km/h (8 Bft) 100,00 %
20.02.2020 20:44 8,2 C 6,1 C 5,6 C 93 % 1009,9 hPa 0,2 l/m 0 min 2 min 0 W/m 86,9 km/h (9 Bft) 100,00 %
20.02.2020 20:46 7,9 C 5,6 C 5,6 C 93 % 1010,8 hPa 0,0 l/m 0 min 2 min 0 W/m 48,3 km/h (6 Bft) 100,00 %
20.02.2020 20:48 7,7 C 5,0 C 5,0 C 92 % 1010,9 hPa 0,2 l/m 0 min 2 min 0 W/m 54,7 km/h (7 Bft) 100,00 %
20.02.2020 20:50 7,4 C 5,0 C 5,0 C 92 % 1011,1 hPa 0,0 l/m 0 min 2 min 0 W/m 29,0 km/h (5 Bft) 100,00 %
20.02.2020 20:52 7,2 C 5,0 C 5,0 C 92 % 1011,1 hPa 0,0 l/m 0 min 2 min 0 W/m 19,3 km/h (3 Bft) 100,00 %
20.02.2020 20:54 7,1 C 5,0 C 4,4 C 92 % 1011,3 hPa 0,0 l/m 0 min 2 min 0 W/m 22,5 km/h (4 Bft) 97,87 %
20.02.2020 20:56 6,9 C 5,0 C 4,4 C 92 % 1011,3 hPa 0,0 l/m 0 min 2 min 0 W/m 32,2 km/h (5 Bft) 100,00 %
20.02.2020 20:58 6,8 C 5,0 C 4,4 C 92 % 1011,4 hPa 0,2 l/m 0 min 2 min 0 W/m 25,7 km/h (4 Bft) 97,87 %
20.02.2020 21:00 6,6 C 4,4 C 4,4 C 92 % 1011,4 hPa 0,0 l/m 0 min 2 min 0 W/m 19,3 km/h (3 Bft) 97,83 %
20.02.2020 21:02 6,5 C 4,4 C 4,4 C 93 % 1011,5 hPa 0,0 l/m 0 min 2 min 0 W/m 29,0 km/h (5 Bft) 93,62 %
20.02.2020 21:04 6,4 C 4,4 C 4,4 C 93 % 1011,4 hPa 0,2 l/m 0 min 2 min 0 W/m 22,5 km/h (4 Bft) 97,87 %
20.02.2020 21:06 6,3 C 4,4 C 4,4 C 93 % 1011,5 hPa 0,0 l/m 0 min 2 min 0 W/m 19,3 km/h (3 Bft) 95,74 %
20.02.2020 21:08 6,2 C 4,4 C 4,4 C 93 % 1011,6 hPa 0,0 l/m 0 min 2 min 0 W/m 32,2 km/h (5 Bft) 100,00 %
20.02.2020 21:10 6,2 C 4,4 C 4,4 C 93 % 1011,7 hPa 0,0 l/m 0 min 2 min 0 W/m 25,7 km/h (4 Bft) 97,87 %
20.02.2020 21:12 6,1 C 4,4 C 4,4 C 93 % 1011,7 hPa 0,0 l/m 0 min 2 min 0 W/m 16,1 km/h (3 Bft) 97,83 %
20.02.2020 21:14 6,1 C 4,4 C 4,4 C 94 % 1011,8 hPa 0,0 l/m 0 min 2 min 0 W/m 16,1 km/h (3 Bft) 95,74 %
20.02.2020 21:16 6,1 C 4,4 C 4,4 C 94 % 1011,9 hPa 0,0 l/m 0 min 2 min 0 W/m 25,7 km/h (4 Bft) 95,74 %
20.02.2020 21:18 6,0 C 4,4 C 4,4 C 94 % 1012,0 hPa 0,0 l/m 0 min 2 min 0 W/m 19,3 km/h (3 Bft) 95,74 %
20.02.2020 21:20 5,9 C 4,4 C 4,4 C 94 % 1012,1 hPa 0,0 l/m 0 min 2 min 0 W/m 25,7 km/h (4 Bft) 95,74 %
20.02.2020 21:22 5,9 C 4,4 C 4,4 C 94 % 1012,2 hPa 0,2 l/m 0 min 2 min 0 W/m 25,7 km/h (4 Bft) 93,62 %
20.02.2020 21:24 5,9 C 4,4 C 4,4 C 94 % 1012,3 hPa 0,0 l/m 0 min 2 min 0 W/m 22,5 km/h (4 Bft) 91,30 %
20.02.2020 21:26 5,9 C 4,4 C 4,4 C 94 % 1012,3 hPa 0,0 l/m 0 min 2 min 0 W/m 22,5 km/h (4 Bft) 95,74 %
20.02.2020 21:28 5,8 C 4,4 C 4,4 C 95 % 1012,3 hPa 0,0 l/m 0 min 2 min 0 W/m 19,3 km/h (3 Bft) 93,62 %
20.02.2020 21:30 5,8 C 4,4 C 4,4 C 95 % 1012,5 hPa 0,0 l/m 0 min 2 min 0 W/m 25,7 km/h (4 Bft) 93,62 %
20.02.2020 21:32 5,8 C 4,4 C 4,4 C 95 % 1012,6 hPa 0,0 l/m 0 min 2 min 0 W/m 12,9 km/h (3 Bft) 95,74 %
20.02.2020 21:34 5,8 C 4,4 C 4,4 C 95 % 1012,6 hPa 0,2 l/m 0 min 2 min 0 W/m 25,7 km/h (4 Bft) 95,65 %
20.02.2020 21:36 5,8 C 4,4 C 4,4 C 95 % 1012,7 hPa 0,0 l/m 0 min 2 min 0 W/m 16,1 km/h (3 Bft) 95,74 %
20.02.2020 21:38 5,8 C 4,4 C 4,4 C 95 % 1012,8 hPa 0,0 l/m 0 min 2 min 0 W/m 22,5 km/h (4 Bft) 93,62 %
20.02.2020 21:40 5,8 C 4,4 C 4,4 C 95 % 1012,9 hPa 0,0 l/m 0 min 2 min 0 W/m 19,3 km/h (3 Bft) 93,62 %
20.02.2020 21:42 5,8 C 4,4 C 4,4 C 95 % 1013,0 hPa 0,0 l/m 0 min 2 min 0 W/m 9,7 km/h (2 Bft) 93,62 %
20.02.2020 21:44 5,8 C 4,4 C 4,4 C 95 % 1013,2 hPa 0,0 l/m 0 min 2 min 0 W/m 16,1 km/h (3 Bft) 93,62 %
20.02.2020 21:46 5,8 C 4,4 C 4,4 C 95 % 1013,3 hPa 0,0 l/m 0 min 2 min 0 W/m 29,0 km/h (5 Bft) 91,30 %
20.02.2020 21:48 5,8 C 4,4 C 4,4 C 95 % 1013,3 hPa 0,0 l/m 0 min 2 min 0 W/m 19,3 km/h (3 Bft) 93,62 %
20.02.2020 21:50 5,8 C 4,4 C 4,4 C 95 % 1013,4 hPa 0,0 l/m 0 min 2 min 0 W/m 22,5 km/h (4 Bft) 93,62 %
20.02.2020 21:52 5,8 C 4,4 C 4,4 C 95 % 1013,5 hPa 0,0 l/m 0 min 2 min 0 W/m 29,0 km/h (5 Bft) 95,74 %
20.02.2020 21:54 5,8 C 4,4 C 4,4 C 96 % 1013,5 hPa 0,0 l/m 0 min 2 min 0 W/m 22,5 km/h (4 Bft) 95,74 %
20.02.2020 21:56 5,7 C 4,4 C 3,9 C 95 % 1013,7 hPa 0,0 l/m 0 min 2 min 0 W/m 25,7 km/h (4 Bft) 91,49 %
20.02.2020 21:58 5,6 C 4,4 C 3,9 C 95 % 1013,6 hPa 0,0 l/m 0 min 2 min 0 W/m 29,0 km/h (5 Bft) 95,65 %
20.02.2020 22:00 5,6 C 4,4 C 3,9 C 95 % 1013,8 hPa 0,0 l/m 0 min 2 min 0 W/m 22,5 km/h (4 Bft) 93,62 %
20.02.2020 22:02 5,5 C 4,4 C 3,9 C 96 % 1013,9 hPa 0,2 l/m 0 min 2 min 0 W/m 29,0 km/h (5 Bft) 95,74 %
20.02.2020 22:04 5,4 C 3,9 C 3,9 C 96 % 1013,9 hPa 0,0 l/m 0 min 2 min 0 W/m 25,7 km/h (4 Bft) 95,74 %
20.02.2020 22:06 5,4 C 3,9 C 3,9 C 96 % 1014,0 hPa 0,0 l/m 0 min 2 min 0 W/m 29,0 km/h (5 Bft) 95,74 %
20.02.2020 22:08 5,4 C 3,9 C 3,9 C 95 % 1014,1 hPa 0,0 l/m 0 min 2 min 0 W/m 25,7 km/h (4 Bft) 95,74 %
20.02.2020 22:10 5,3 C 3,9 C 3,9 C 95 % 1014,3 hPa 0,2 l/m 0 min 2 min 0 W/m 22,5 km/h (4 Bft) 95,65 %
20.02.2020 22:12 5,3 C 3,9 C 3,9 C 95 % 1014,3 hPa 0,0 l/m 0 min 2 min 0 W/m 9,7 km/h (2 Bft) 93,62 %
20.02.2020 22:14 5,3 C 3,9 C 3,9 C 96 % 1014,2 hPa 0,0 l/m 0 min 2 min 0 W/m 6,4 km/h (2 Bft) 95,74 %
20.02.2020 22:16 5,3 C 3,9 C 3,9 C 96 % 1014,3 hPa 0,0 l/m 0 min 2 min 0 W/m 25,7 km/h (4 Bft) 95,74 %
20.02.2020 22:18 5,2 C 3,9 C 3,3 C 96 % 1014,4 hPa 0,0 l/m 0 min 2 min 0 W/m 19,3 km/h (3 Bft) 93,62 %
20.02.2020 22:20 5,2 C 3,9 C 3,3 C 96 % 1014,3 hPa 0,0 l/m 0 min 2 min 0 W/m 25,7 km/h (4 Bft) 97,87 %
20.02.2020 22:22 5,1 C 3,9 C 3,3 C 96 % 1014,4 hPa 0,0 l/m 0 min 0 min 0 W/m 16,1 km/h (3 Bft) 100,00 %
20.02.2020 22:24 5,1 C 3,9 C 3,3 C 96 % 1014,5 hPa 0,0 l/m 0 min 2 min 0 W/m 16,1 km/h (3 Bft) 100,00 %
20.02.2020 22:26 5,1 C 3,9 C 3,3 C 96 % 1014,6 hPa 0,0 l/m 0 min 0 min 0 W/m 16,1 km/h (3 Bft) 100,00 %
20.02.2020 22:28 5,0 C 3,9 C 3,9 C 96 % 1014,7 hPa 0,0 l/m 0 min 0 min 0 W/m 12,9 km/h (3 Bft) 100,00 %
20.02.2020 22:30 5,0 C 3,9 C 3,9 C 96 % 1014,9 hPa 0,0 l/m 0 min 0 min 0 W/m 12,9 km/h (3 Bft) 97,87 %
20.02.2020 22:32 5,0 C 3,9 C 3,3 C 96 % 1014,9 hPa 0,0 l/m 0 min 0 min 0 W/m 12,9 km/h (3 Bft) 100,00 %
20.02.2020 22:34 4,9 C 3,9 C 3,3 C 96 % 1015,0 hPa 0,0 l/m 0 min 0 min 0 W/m 12,9 km/h (3 Bft) 100,00 %
20.02.2020 22:36 4,9 C 3,9 C 3,3 C 96 % 1015,0 hPa 0,0 l/m 0 min 0 min 0 W/m 22,5 km/h (4 Bft) 97,87 %
20.02.2020 22:38 4,9 C 3,9 C 3,3 C 96 % 1015,0 hPa 0,0 l/m 0 min 0 min 0 W/m 19,3 km/h (3 Bft) 100,00 %
20.02.2020 22:40 4,9 C 3,9 C 3,3 C 96 % 1015,0 hPa 0,0 l/m 0 min 0 min 0 W/m 16,1 km/h (3 Bft) 100,00 %
20.02.2020 22:42 4,9 C 3,9 C 3,3 C 96 % 1015,2 hPa 0,0 l/m 0 min 0 min 0 W/m 19,3 km/h (3 Bft) 95,74 %
20.02.2020 22:44 4,9 C 3,9 C 3,3 C 96 % 1015,2 hPa 0,0 l/m 0 min 2 min 0 W/m 19,3 km/h (3 Bft) 100,00 %
20.02.2020 22:46 4,9 C 3,9 C 3,9 C 96 % 1015,2 hPa 0,0 l/m 0 min 2 min 0 W/m 16,1 km/h (3 Bft) 97,87 %
20.02.2020 22:48 4,9 C 3,9 C 3,9 C 96 % 1015,2 hPa 0,0 l/m 0 min 2 min 0 W/m 16,1 km/h (3 Bft) 100,00 %
20.02.2020 22:50 4,9 C 3,9 C 3,9 C 96 % 1015,3 hPa 0,0 l/m 0 min 2 min 0 W/m 16,1 km/h (3 Bft) 100,00 %
20.02.2020 22:52 4,9 C 3,9 C 3,9 C 96 % 1015,4 hPa 0,0 l/m 0 min 2 min 0 W/m 16,1 km/h (3 Bft) 100,00 %
20.02.2020 22:54 4,9 C 3,9 C 3,9 C 96 % 1015,4 hPa 0,0 l/m 0 min 2 min 0 W/m 29,0 km/h (5 Bft) 100,00 %
20.02.2020 22:56 5,0 C 3,9 C 3,3 C 96 % 1015,3 hPa 0,0 l/m 0 min 2 min 0 W/m 25,7 km/h (4 Bft) 100,00 %
20.02.2020 22:58 4,9 C 3,9 C 3,3 C 96 % 1015,4 hPa 0,0 l/m 0 min 2 min 0 W/m 16,1 km/h (3 Bft) 100,00 %
20.02.2020 23:00 4,9 C 3,3 C 3,3 C 96 % 1015,5 hPa 0,0 l/m 0 min 2 min 0 W/m 16,1 km/h (3 Bft) 100,00 %
20.02.2020 23:02 4,9 C 3,3 C 3,3 C 96 % 1015,6 hPa 0,0 l/m 0 min 2 min 0 W/m 32,2 km/h (5 Bft) 97,87 %
20.02.2020 23:04 4,9 C 3,3 C 3,3 C 96 % 1015,7 hPa 0,0 l/m 0 min 2 min 0 W/m 25,7 km/h (4 Bft) 100,00 %
20.02.2020 23:06 4,8 C 3,3 C 3,3 C 96 % 1015,7 hPa 0,0 l/m 0 min 2 min 0 W/m 22,5 km/h (4 Bft) 100,00 %
20.02.2020 23:08 4,8 C 3,3 C 3,3 C 96 % 1015,7 hPa 0,0 l/m 0 min 2 min 0 W/m 22,5 km/h (4 Bft) 100,00 %
20.02.2020 23:10 4,7 C 3,3 C 3,3 C 96 % 1015,7 hPa 0,0 l/m 0 min 2 min 0 W/m 22,5 km/h (4 Bft) 100,00 %
20.02.2020 23:12 4,7 C 3,3 C 3,3 C 96 % 1015,7 hPa 0,0 l/m 0 min 2 min 0 W/m 22,5 km/h (4 Bft) 100,00 %
20.02.2020 23:14 4,7 C 3,3 C 3,3 C 96 % 1015,7 hPa 0,0 l/m 0 min 2 min 0 W/m 9,7 km/h (2 Bft) 100,00 %
20.02.2020 23:16 4,7 C 3,3 C 3,3 C 96 % 1015,8 hPa 0,0 l/m 0 min 2 min 0 W/m 25,7 km/h (4 Bft) 100,00 %
20.02.2020 23:18 4,6 C 3,3 C 3,3 C 95 % 1015,9 hPa 0,0 l/m 0 min 2 min 0 W/m 19,3 km/h (3 Bft) 100,00 %
20.02.2020 23:20 4,6 C 3,3 C 3,3 C 95 % 1015,9 hPa 0,0 l/m 0 min 2 min 0 W/m 38,6 km/h (5 Bft) 100,00 %
20.02.2020 23:22 4,6 C 3,3 C 3,3 C 95 % 1015,9 hPa 0,0 l/m 0 min 2 min 0 W/m 32,2 km/h (5 Bft) 100,00 %
20.02.2020 23:24 4,6 C 3,3 C 3,3 C 95 % 1016,1 hPa 0,0 l/m 0 min 2 min 0 W/m 19,3 km/h (3 Bft) 100,00 %
20.02.2020 23:26 4,6 C 3,3 C 2,8 C 95 % 1016,2 hPa 0,0 l/m 0 min 2 min 0 W/m 22,5 km/h (4 Bft) 100,00 %
20.02.2020 23:28 4,5 C 3,3 C 2,8 C 95 % 1016,2 hPa 0,0 l/m 0 min 2 min 0 W/m 29,0 km/h (5 Bft) 97,87 %
20.02.2020 23:30 4,5 C 3,3 C 2,8 C 95 % 1016,3 hPa 0,0 l/m 0 min 2 min 0 W/m 22,5 km/h (4 Bft) 100,00 %
20.02.2020 23:32 4,4 C 3,3 C 2,8 C 95 % 1016,3 hPa 0,0 l/m 0 min 2 min 0 W/m 22,5 km/h (4 Bft) 97,83 %
20.02.2020 23:34 4,4 C 3,3 C 2,8 C 95 % 1016,4 hPa 0,0 l/m 0 min 2 min 0 W/m 35,4 km/h (5 Bft) 97,87 %
20.02.2020 23:36 4,4 C 3,3 C 2,8 C 95 % 1016,4 hPa 0,0 l/m 0 min 2 min 0 W/m 35,4 km/h (5 Bft) 100,00 %
20.02.2020 23:38 4,3 C 3,3 C 2,8 C 95 % 1016,5 hPa 0,0 l/m 0 min 2 min 0 W/m 32,2 km/h (5 Bft) 100,00 %
20.02.2020 23:40 4,3 C 2,8 C 2,8 C 94 % 1016,5 hPa 0,0 l/m 0 min 2 min 0 W/m 19,3 km/h (3 Bft) 100,00 %
20.02.2020 23:42 4,3 C 2,8 C 2,8 C 94 % 1016,6 hPa 0,0 l/m 0 min 2 min 0 W/m 22,5 km/h (4 Bft) 100,00 %
20.02.2020 23:44 4,3 C 2,8 C 2,8 C 94 % 1016,6 hPa 0,0 l/m 0 min 2 min 0 W/m 16,1 km/h (3 Bft) 100,00 %
20.02.2020 23:46 4,3 C 2,8 C 2,8 C 94 % 1016,8 hPa 0,0 l/m 0 min 2 min 0 W/m 32,2 km/h (5 Bft) 100,00 %
20.02.2020 23:48 4,3 C 2,8 C 2,8 C 94 % 1016,8 hPa 0,0 l/m 0 min 2 min 0 W/m 38,6 km/h (5 Bft) 100,00 %
20.02.2020 23:50 4,2 C 2,8 C 2,8 C 94 % 1016,9 hPa 0,0 l/m 0 min 2 min 0 W/m 22,5 km/h (4 Bft) 100,00 %
20.02.2020 23:52 4,2 C 2,8 C 2,8 C 94 % 1017,0 hPa 0,0 l/m 0 min 2 min 0 W/m 45,1 km/h (6 Bft) 95,74 %
20.02.2020 23:54 4,2 C 2,8 C 2,8 C 94 % 1017,1 hPa 0,0 l/m 0 min 2 min 0 W/m 12,9 km/h (3 Bft) 70,21 %
20.02.2020 23:56 4,2 C 2,8 C 2,8 C 94 % 1017,1 hPa 0,0 l/m 0 min 2 min 0 W/m 22,5 km/h (4 Bft) 78,95 %
20.02.2020 23:58 4,2 C 2,8 C 2,8 C 94 % 1017,1 hPa 0,0 l/m 0 min 2 min 0 W/m 19,3 km/h (3 Bft) 97,87 %
_ Min-Zeit 23:50 23:40 23:26 13:40 20:26 - - - - 00:40 11:56
Minimum _ 4,2 C 2,8 C 2,8 C 77 % 1009,3 hPa - - - - 0,0 km/h (0 Bft) 65,22 %
_ Max-Zeit 14:02 11:34 13:08 21:54 00:00 20:40 10:24 12:08 13:16 20:44 00:36
Maximum _ 10,8 C 13,9 C 13,3 C 96 % 1020,5 hPa 0,4 l/m 2 min 4 min 597 W/m 86,9 km/h
SW (9 Bft)
100,00 %
Durchschnitt _ 7,9 C 7,3 C 6,7 C 88 % 1015,4 hPa #4,4 l/m #2:04 h #7:42 h 127 W/m 25,0 km/h (4 Bft) 97,43 %
© 2020 W. Hausmann